Vuilleumier, Laurent (2010): Radiosonde measurements from station Payerne (2009-11) [dataset]. Swiss Meteorological Agency, Payerne, PANGAEA, https://doi.org/10.1594/PANGAEA.735578
Always quote citation above when using data! You can download the citation in several formats below.
Published: 2010-03-23 • DOI registered: 2010-04-20
Other version:
Vuilleumier, Laurent (2010): BSRN Station-to-archive file for station Payerne (2009-11) [dataset]. ftp://ftp.bsrn.awi.de/pay/pay1109.dat.gz
Project(s):
Coverage:
Latitude: 46.812300 * Longitude: 6.942200
Date/Time Start: 2009-11-01T00:00:00 * Date/Time End: 2009-11-30T12:00:00
Minimum ALTITUDE: 491 m * Maximum ALTITUDE: 35027 m
Event(s):
PAY (Payerne) * Latitude: 46.812300 * Longitude: 6.942200 * Date/Time: 1992-09-01T00:00:00 * Elevation: 491.0 m * Location: Switzerland * Method/Device: Monitoring station (MONS) * Comment: BSRN station no: 21; Surface type: cultivated; Topography type: hilly, rural; Horizon: doi:10.1594/PANGAEA.947035; Station scientist: Laurent Vuilleumier (laurent.vuilleumier@meteoswiss.ch)
Parameter(s):
| # | Name | Short Name | Unit | Principal Investigator | Method/Device | Comment |
|---|---|---|---|---|---|---|
| 1 | DATE/TIME | Date/Time | Geocode | |||
| 2 | ALTITUDE | Altitude | m | Geocode | ||
| 3 | Pressure, at given altitude | PPPP | hPa | Vuilleumier, Laurent | Radiosonde, METEOLABOR AG, SRSCH | |
| 4 | Temperature, air | TTT | °C | Vuilleumier, Laurent | Radiosonde, METEOLABOR AG, SRSCH | |
| 5 | Dew/frost point | TdTdTd | °C | Vuilleumier, Laurent | Radiosonde, METEOLABOR AG, SRSCH | |
| 6 | Wind direction | dd | deg | Vuilleumier, Laurent | Radiosonde, METEOLABOR AG, SRSCH | |
| 7 | Wind speed | ff | m/s | Vuilleumier, Laurent | Radiosonde, METEOLABOR AG, SRSCH | |
| 8 | Ozone, partial pressure | pO3 | mPa | Vuilleumier, Laurent | Radiosonde, METEOLABOR AG, SRSCH |
License:
Size:
315841 data points
Data
| 1 Date/Time | 2 Altitude [m] | 3 PPPP [hPa] | 4 TTT [°C] | 5 TdTdTd [°C] | 6 dd [deg] | 7 ff [m/s] | 8 pO3 [mPa] |
|---|---|---|---|---|---|---|---|
| 2009-11-01T00:00 | 491 | 967 | 5.6 | 5.4 | 189 | 0 | |
| 2009-11-01T00:00 | 508 | 965 | 7.9 | 6.1 | |||
| 2009-11-01T00:00 | 517 | 964 | 8.0 | 6.5 | |||
| 2009-11-01T00:00 | 545 | 961 | 8.1 | 6.7 | |||
| 2009-11-01T00:00 | 557 | 960 | 8.1 | 6.6 | |||
| 2009-11-01T00:00 | 562 | 959 | 8.1 | 6.6 | |||
| 2009-11-01T00:00 | 587 | 956 | 8.4 | 6.4 | |||
| 2009-11-01T00:00 | 595 | 955 | 8.4 | 6.3 | |||
| 2009-11-01T00:00 | 598 | 955 | 8.4 | 6.3 | |||
| 2009-11-01T00:00 | 607 | 954 | 8.4 | 6.3 | 141 | 1 | |
| 2009-11-01T00:00 | 620 | 952 | 8.4 | 6.3 | |||
| 2009-11-01T00:00 | 630 | 951 | 8.3 | 6.4 | |||
| 2009-11-01T00:00 | 635 | 951 | 8.2 | 6.4 | |||
| 2009-11-01T00:00 | 653 | 949 | 8.1 | 6.5 | 188 | 1 | |
| 2009-11-01T00:00 | 665 | 947 | 8.1 | 6.6 | |||
| 2009-11-01T00:00 | 669 | 947 | 8.1 | 6.7 | |||
| 2009-11-01T00:00 | 685 | 945 | 8.2 | 6.5 | |||
| 2009-11-01T00:00 | 693 | 944 | 8.2 | 6.4 | 221 | 2 | |
| 2009-11-01T00:00 | 697 | 944 | 8.2 | 6.3 | |||
| 2009-11-01T00:00 | 717 | 941 | 8.0 | 6.2 | |||
| 2009-11-01T00:00 | 725 | 940 | 8.0 | 6.1 | |||
| 2009-11-01T00:00 | 730 | 940 | 7.9 | 6.1 | |||
| 2009-11-01T00:00 | 734 | 939 | 8.0 | 6.0 | 233 | 3 | |
| 2009-11-01T00:00 | 752 | 937 | 8.0 | 5.8 | |||
| 2009-11-01T00:00 | 762 | 936 | 8.2 | 5.7 | |||
| 2009-11-01T00:00 | 768 | 936 | 8.2 | 5.6 | |||
| 2009-11-01T00:00 | 782 | 934 | 8.4 | 5.4 | 238 | 4 | |
| 2009-11-01T00:00 | 787 | 933 | 8.4 | 5.3 | |||
| 2009-11-01T00:00 | 796 | 932 | 8.4 | 5.2 | |||
| 2009-11-01T00:00 | 801 | 932 | 8.4 | 5.1 | |||
| 2009-11-01T00:00 | 822 | 929 | 8.4 | 5.0 | |||
| 2009-11-01T00:00 | 825 | 929 | 8.4 | 5.0 | 241 | 5 | |
| 2009-11-01T00:00 | 828 | 929 | 8.4 | 5.0 | |||
| 2009-11-01T00:00 | 831 | 928 | 8.4 | 5.0 | |||
| 2009-11-01T00:00 | 851 | 926 | 8.8 | 5.1 | |||
| 2009-11-01T00:00 | 860 | 925 | 8.8 | 5.1 | |||
| 2009-11-01T00:00 | 861 | 925 | 8.8 | 5.1 | |||
| 2009-11-01T00:00 | 865 | 925 | 8.9 | 5.1 | 242 | 5 | |
| 2009-11-01T00:00 | 891 | 922 | 9.1 | 5.6 | |||
| 2009-11-01T00:00 | 901 | 921 | 9.1 | 5.9 | |||
| 2009-11-01T00:00 | 907 | 920 | 9.1 | 6.0 | |||
| 2009-11-01T00:00 | 917 | 919 | 9.1 | 6.0 | 243 | 6 | |
| 2009-11-01T00:00 | 926 | 918 | 9.1 | 6.1 | |||
| 2009-11-01T00:00 | 935 | 917 | 9.2 | 6.1 | |||
| 2009-11-01T00:00 | 939 | 916 | 9.2 | 6.2 | |||
| 2009-11-01T00:00 | 961 | 914 | 9.6 | 6.0 | 245 | 6 | |
| 2009-11-01T00:00 | 970 | 913 | 9.6 | 5.9 | |||
| 2009-11-01T00:00 | 975 | 912 | 9.6 | 5.8 | |||
| 2009-11-01T00:00 | 991 | 911 | 9.7 | 5.7 | |||
| 2009-11-01T00:00 | 1002 | 909 | 9.8 | 5.6 | 245 | 6 | |
| 2009-11-01T00:00 | 1006 | 909 | 9.8 | 5.6 | |||
| 2009-11-01T00:00 | 1023 | 907 | 10.0 | 5.2 | |||
| 2009-11-01T00:00 | 1032 | 906 | 10.1 | 5.0 | |||
| 2009-11-01T00:00 | 1037 | 906 | 10.1 | 4.9 | |||
| 2009-11-01T00:00 | 1048 | 904 | 10.1 | 4.7 | 244 | 6 | |
| 2009-11-01T00:00 | 1063 | 903 | 10.1 | 4.4 | |||
| 2009-11-01T00:00 | 1075 | 901 | 10.1 | 4.2 | |||
| 2009-11-01T00:00 | 1081 | 901 | 10.1 | 4.1 | |||
| 2009-11-01T00:00 | 1089 | 900 | 10.0 | 3.8 | |||
| 2009-11-01T00:00 | 1103 | 898 | 10.0 | 3.4 | 243 | 6 | |
| 2009-11-01T00:00 | 1118 | 897 | 10.0 | 2.8 | |||
| 2009-11-01T00:00 | 1123 | 896 | 9.9 | 2.6 | |||
| 2009-11-01T00:00 | 1143 | 894 | 9.8 | 1.3 | |||
| 2009-11-01T00:00 | 1152 | 893 | 9.8 | 0.6 | 240 | 6 | |
| 2009-11-01T00:00 | 1157 | 893 | 9.8 | 0.3 | |||
| 2009-11-01T00:00 | 1180 | 890 | 10.1 | -1.4 | |||
| 2009-11-01T00:00 | 1189 | 889 | 10.1 | -2.1 | |||
| 2009-11-01T00:00 | 1193 | 889 | 10.1 | -2.4 | |||
| 2009-11-01T00:00 | 1198 | 888 | 10.1 | -2.6 | 236 | 6 | |
| 2009-11-01T00:00 | 1216 | 886 | 10.1 | -3.5 | |||
| 2009-11-01T00:00 | 1224 | 885 | 10.1 | -3.9 | |||
| 2009-11-01T00:00 | 1229 | 885 | 10.1 | -4.1 | |||
| 2009-11-01T00:00 | 1242 | 884 | 10.0 | -4.4 | 231 | 6 | |
| 2009-11-01T00:00 | 1246 | 883 | 10.0 | -4.5 | |||
| 2009-11-01T00:00 | 1254 | 882 | 9.9 | -4.6 | |||
| 2009-11-01T00:00 | 1258 | 882 | 10.0 | -4.7 | |||
| 2009-11-01T00:00 | 1280 | 880 | 9.8 | -3.0 | |||
| 2009-11-01T00:00 | 1285 | 879 | 9.8 | -2.6 | 228 | 6 | |
| 2009-11-01T00:00 | 1290 | 878 | 9.7 | -2.2 | |||
| 2009-11-01T00:00 | 1295 | 878 | 9.7 | -1.7 | |||
| 2009-11-01T00:00 | 1316 | 876 | 10.0 | -1.1 | |||
| 2009-11-01T00:00 | 1322 | 875 | 10.0 | -1.1 | |||
| 2009-11-01T00:00 | 1325 | 875 | 10.1 | -1.0 | 225 | 6 | |
| 2009-11-01T00:00 | 1341 | 873 | 10.0 | -1.2 | |||
| 2009-11-01T00:00 | 1352 | 872 | 9.9 | -1.4 | |||
| 2009-11-01T00:00 | 1358 | 871 | 9.9 | -1.5 | |||
| 2009-11-01T00:00 | 1372 | 870 | 9.8 | -1.6 | 224 | 6 | |
| 2009-11-01T00:00 | 1382 | 869 | 9.8 | -1.7 | |||
| 2009-11-01T00:00 | 1389 | 868 | 9.7 | -1.8 | |||
| 2009-11-01T00:00 | 1393 | 868 | 9.7 | -1.8 | |||
| 2009-11-01T00:00 | 1414 | 865 | 9.7 | -2.0 | 224 | 6 | |
| 2009-11-01T00:00 | 1425 | 864 | 9.7 | -2.0 | |||
| 2009-11-01T00:00 | 1430 | 864 | 9.8 | -2.0 | |||
| 2009-11-01T00:00 | 1446 | 862 | 9.6 | -2.4 | |||
| 2009-11-01T00:00 | 1454 | 861 | 9.6 | -2.7 | 223 | 6 | |
| 2009-11-01T00:00 | 1457 | 861 | 9.6 | -2.9 | |||
| 2009-11-01T00:00 | 1472 | 859 | 9.4 | -3.0 | |||
| 2009-11-01T00:00 | 1481 | 859 | 9.4 | -3.1 | |||
| 2009-11-01T00:00 | 1485 | 858 | 9.3 | -3.2 | |||
| 2009-11-01T00:00 | 1494 | 857 | 9.3 | -3.2 | 223 | 6 | |
| 2009-11-01T00:00 | 1507 | 856 | 9.2 | -3.2 | |||
| 2009-11-01T00:00 | 1515 | 855 | 9.1 | -3.2 | |||
| 2009-11-01T00:00 | 1519 | 855 | 9.1 | -3.2 | |||
| 2009-11-01T00:00 | 1537 | 853 | 8.9 | -3.3 | 223 | 5 | |
| 2009-11-01T00:00 | 1542 | 852 | 8.9 | -3.3 | |||
| 2009-11-01T00:00 | 1552 | 851 | 8.8 | -3.3 | |||
| 2009-11-01T00:00 | 1557 | 851 | 8.8 | -3.3 | |||
| 2009-11-01T00:00 | 1563 | 850 | 8.8 | -3.5 | |||
| 2009-11-01T00:00 | 1575 | 849 | 8.6 | -3.7 | |||
| 2009-11-01T00:00 | 1583 | 848 | 8.6 | -3.9 | 224 | 5 | |
| 2009-11-01T00:00 | 1587 | 848 | 8.7 | -4.1 | |||
| 2009-11-01T00:00 | 1607 | 846 | 8.6 | -5.7 | |||
| 2009-11-01T00:00 | 1615 | 845 | 8.6 | -6.5 | |||
| 2009-11-01T00:00 | 1620 | 844 | 8.6 | -6.9 | |||
| 2009-11-01T00:00 | 1624 | 844 | 8.6 | -7.4 | 227 | 4 | |
| 2009-11-01T00:00 | 1642 | 842 | 8.6 | -9.2 | |||
| 2009-11-01T00:00 | 1650 | 841 | 8.6 | -10.1 | |||
| 2009-11-01T00:00 | 1655 | 841 | 8.5 | -10.6 | |||
| 2009-11-01T00:00 | 1669 | 839 | 8.5 | -11.5 | 232 | 3 | |
| 2009-11-01T00:00 | 1673 | 839 | 8.5 | -11.8 | |||
| 2009-11-01T00:00 | 1683 | 838 | 8.4 | -12.3 | |||
| 2009-11-01T00:00 | 1688 | 837 | 8.4 | -12.6 | |||
| 2009-11-01T00:00 | 1711 | 835 | 8.4 | -13.1 | |||
| 2009-11-01T00:00 | 1715 | 835 | 8.4 | -13.2 | 239 | 3 | |
| 2009-11-01T00:00 | 1719 | 834 | 8.3 | -13.3 | |||
| 2009-11-01T00:00 | 1723 | 834 | 8.3 | -13.4 | |||
| 2009-11-01T00:00 | 1742 | 832 | 8.3 | -13.6 | |||
| 2009-11-01T00:00 | 1749 | 831 | 8.3 | -13.6 | |||
| 2009-11-01T00:00 | 1753 | 831 | 8.3 | -13.7 | 249 | 2 | |
| 2009-11-01T00:00 | 1773 | 829 | 8.3 | -13.7 | |||
| 2009-11-01T00:00 | 1783 | 828 | 8.2 | -13.7 | |||
| 2009-11-01T00:00 | 1788 | 827 | 8.2 | -13.7 | |||
| 2009-11-01T00:00 | 1797 | 826 | 8.1 | -13.6 | 263 | 2 | |
| 2009-11-01T00:00 | 1806 | 825 | 8.0 | -13.5 | |||
| 2009-11-01T00:00 | 1814 | 825 | 7.9 | -13.4 | |||
| 2009-11-01T00:00 | 1819 | 824 | 7.9 | -13.3 | |||
| 2009-11-01T00:00 | 1841 | 822 | 8.0 | -12.9 | 276 | 2 | |
| 2009-11-01T00:00 | 1850 | 821 | 8.0 | -12.7 | |||
| 2009-11-01T00:00 | 1855 | 820 | 8.0 | -12.6 | |||
| 2009-11-01T00:00 | 1875 | 818 | 7.9 | -12.1 | |||
| 2009-11-01T00:00 | 1882 | 818 | 8.0 | -11.9 | 291 | 2 | |
| 2009-11-01T00:00 | 1885 | 818 | 8.0 | -11.8 | |||
| 2009-11-01T00:00 | 1902 | 816 | 8.0 | -12.1 | |||
| 2009-11-01T00:00 | 1910 | 815 | 8.0 | -12.3 | |||
| 2009-11-01T00:00 | 1914 | 815 | 8.0 | -12.4 | |||
| 2009-11-01T00:00 | 1918 | 814 | 8.0 | -12.4 | 304 | 2 | |
| 2009-11-01T00:00 | 1932 | 813 | 8.0 | -12.5 | |||
| 2009-11-01T00:00 | 1941 | 812 | 8.0 | -12.5 | |||
| 2009-11-01T00:00 | 1946 | 811 | 8.0 | -12.6 | |||
| 2009-11-01T00:00 | 1964 | 810 | 8.0 | -12.2 | 312 | 3 | |
| 2009-11-01T00:00 | 1969 | 809 | 8.0 | -12.1 | |||
| 2009-11-01T00:00 | 1977 | 808 | 7.9 | -11.9 | |||
| 2009-11-01T00:00 | 1981 | 808 | 7.9 | -11.8 | |||
| 2009-11-01T00:00 | 2001 | 806 | 7.8 | -12.1 | |||
| 2009-11-01T00:00 | 2005 | 806 | 7.8 | -12.1 | 317 | 3 | |
| 2009-11-01T00:00 | 2008 | 805 | 7.7 | -12.2 | |||
| 2009-11-01T00:00 | 2011 | 805 | 7.7 | -12.3 | |||
| 2009-11-01T00:00 | 2032 | 803 | 7.5 | -11.1 | |||
| 2009-11-01T00:00 | 2041 | 802 | 7.4 | -10.4 | |||
| 2009-11-01T00:00 | 2046 | 802 | 7.3 | -10.1 | 321 | 4 | |
| 2009-11-01T00:00 | 2063 | 800 | 7.1 | -7.1 | |||
| 2009-11-01T00:00 | 2064 | 800 | 7.1 | -7.0 | |||
| 2009-11-01T00:00 | 2072 | 799 | 7.0 | -5.2 | |||
| 2009-11-01T00:00 | 2076 | 799 | 7.0 | -4.3 | |||
| 2009-11-01T00:00 | 2088 | 798 | 6.9 | -3.5 | 322 | 4 | |
| 2009-11-01T00:00 | 2097 | 797 | 6.8 | -2.9 | |||
| 2009-11-01T00:00 | 2106 | 796 | 6.7 | -2.6 | |||
| 2009-11-01T00:00 | 2111 | 795 | 6.7 | -2.5 | |||
| 2009-11-01T00:00 | 2133 | 793 | 6.5 | -2.2 | 321 | 4 | |
| 2009-11-01T00:00 | 2140 | 793 | 6.4 | -2.1 | |||
| 2009-11-01T00:00 | 2144 | 792 | 6.4 | -2.1 | |||
| 2009-11-01T00:00 | 2165 | 790 | 6.2 | -2.2 | |||
| 2009-11-01T00:00 | 2175 | 789 | 6.1 | -2.2 | 318 | 4 | |
| 2009-11-01T00:00 | 2180 | 789 | 6.1 | -2.3 | |||
| 2009-11-01T00:00 | 2197 | 787 | 5.9 | -2.4 | |||
| 2009-11-01T00:00 | 2204 | 786 | 5.9 | -2.5 | |||
| 2009-11-01T00:00 | 2207 | 786 | 5.8 | -2.5 | |||
| 2009-11-01T00:00 | 2215 | 785 | 5.8 | -2.5 | 311 | 4 | |
| 2009-11-01T00:00 | 2227 | 784 | 5.7 | -2.4 | |||
| 2009-11-01T00:00 | 2235 | 783 | 5.6 | -2.3 | |||
| 2009-11-01T00:00 | 2240 | 783 | 5.6 | -2.2 | |||
| 2009-11-01T00:00 | 2258 | 781 | 5.5 | -2.1 | 304 | 4 | |
| 2009-11-01T00:00 | 2262 | 781 | 5.5 | -2.0 | |||
| 2009-11-01T00:00 | 2271 | 780 | 5.4 | -1.9 | |||
| 2009-11-01T00:00 | 2276 | 780 | 5.4 | -1.9 | |||
| 2009-11-01T00:00 | 2299 | 777 | 5.3 | -1.9 | |||
| 2009-11-01T00:00 | 2303 | 777 | 5.2 | -1.9 | 299 | 4 | |
| 2009-11-01T00:00 | 2308 | 776 | 5.2 | -2.0 | |||
| 2009-11-01T00:00 | 2312 | 776 | 5.2 | -2.0 | |||
| 2009-11-01T00:00 | 2330 | 774 | 5.0 | -2.0 | |||
| 2009-11-01T00:00 | 2342 | 773 | 4.9 | -2.1 | |||
| 2009-11-01T00:00 | 2347 | 773 | 4.9 | -2.1 | 297 | 4 | |
| 2009-11-01T00:00 | 2364 | 771 | 4.8 | -2.1 | |||
| 2009-11-01T00:00 | 2373 | 770 | 4.7 | -2.1 | |||
| 2009-11-01T00:00 | 2378 | 770 | 4.7 | -2.1 | |||
| 2009-11-01T00:00 | 2391 | 769 | 4.6 | -2.1 | 298 | 5 | |
| 2009-11-01T00:00 | 2400 | 768 | 4.5 | -2.1 | |||
| 2009-11-01T00:00 | 2409 | 767 | 4.4 | -2.1 | |||
| 2009-11-01T00:00 | 2413 | 766 | 4.4 | -2.1 | |||
| 2009-11-01T00:00 | 2435 | 764 | 4.2 | -2.2 | 302 | 5 | |
| 2009-11-01T00:00 | 2442 | 764 | 4.1 | -2.2 | |||
| 2009-11-01T00:00 | 2446 | 763 | 4.1 | -2.3 | |||
| 2009-11-01T00:00 | 2462 | 762 | 3.9 | -2.4 | |||
| 2009-11-01T00:00 | 2475 | 761 | 3.8 | -2.5 | 307 | 5 | |
| 2009-11-01T00:00 | 2479 | 760 | 3.8 | -2.5 | |||
| 2009-11-01T00:00 | 2497 | 759 | 3.7 | -2.7 | |||
| 2009-11-01T00:00 | 2506 | 758 | 3.6 | -2.8 | |||
| 2009-11-01T00:00 | 2510 | 757 | 3.6 | -2.8 | |||
| 2009-11-01T00:00 | 2519 | 757 | 3.5 | -3.0 | 313 | 5 | |
| 2009-11-01T00:00 | 2532 | 755 | 3.5 | -3.3 | |||
| 2009-11-01T00:00 | 2541 | 755 | 3.5 | -3.5 | |||
| 2009-11-01T00:00 | 2545 | 754 | 3.4 | -3.6 | |||
| 2009-11-01T00:00 | 2562 | 753 | 3.3 | -4.5 | 317 | 5 | |
| 2009-11-01T00:00 | 2566 | 752 | 3.3 | -4.7 | |||
| 2009-11-01T00:00 | 2574 | 751 | 3.2 | -5.2 | |||
| 2009-11-01T00:00 | 2579 | 751 | 3.2 | -5.5 | |||
| 2009-11-01T00:00 | 2601 | 749 | 2.9 | -5.1 | |||
| 2009-11-01T00:00 | 2606 | 749 | 2.9 | -4.9 | 318 | 4 | |
| 2009-11-01T00:00 | 2610 | 748 | 2.8 | -4.7 | |||
| 2009-11-01T00:00 | 2615 | 748 | 2.8 | -4.6 | |||
| 2009-11-01T00:00 | 2640 | 745 | 2.7 | -4.3 | |||
| 2009-11-01T00:00 | 2651 | 744 | 2.6 | -4.2 | |||
| 2009-11-01T00:00 | 2656 | 744 | 2.6 | -4.2 | 315 | 5 | |
| 2009-11-01T00:00 | 2675 | 742 | 2.5 | -4.6 | |||
| 2009-11-01T00:00 | 2687 | 741 | 2.5 | -5.1 | |||
| 2009-11-01T00:00 | 2691 | 741 | 2.6 | -5.2 | |||
| 2009-11-01T00:00 | 2700 | 740 | 2.6 | -6.2 | 312 | 5 | |
| 2009-11-01T00:00 | 2708 | 739 | 2.6 | -7.2 | |||
| 2009-11-01T00:00 | 2717 | 738 | 2.6 | -8.4 | |||
| 2009-11-01T00:00 | 2721 | 738 | 2.6 | -8.9 | |||
| 2009-11-01T00:00 | 2743 | 736 | 2.4 | -10.6 | 308 | 5 | |
| 2009-11-01T00:00 | 2752 | 735 | 2.4 | -11.2 | |||
| 2009-11-01T00:00 | 2757 | 735 | 2.4 | -11.4 | |||
| 2009-11-01T00:00 | 2779 | 733 | 2.2 | -12.4 | |||
| 2009-11-01T00:00 | 2788 | 732 | 2.1 | -12.7 | 305 | 5 | |
| 2009-11-01T00:00 | 2792 | 732 | 2.1 | -12.8 | |||
| 2009-11-01T00:00 | 2814 | 730 | 2.0 | -12.9 | |||
| 2009-11-01T00:00 | 2823 | 729 | 2.0 | -12.9 | |||
| 2009-11-01T00:00 | 2828 | 728 | 1.9 | -12.9 | |||
| 2009-11-01T00:00 | 2833 | 728 | 1.9 | -12.7 | 306 | 5 | |
| 2009-11-01T00:00 | 2851 | 726 | 1.8 | -12.1 | |||
| 2009-11-01T00:00 | 2860 | 725 | 1.7 | -11.8 | |||
| 2009-11-01T00:00 | 2865 | 725 | 1.7 | -11.6 | |||
| 2009-11-01T00:00 | 2879 | 724 | 1.6 | -11.2 | 309 | 6 | |
| 2009-11-01T00:00 | 2888 | 723 | 1.5 | -11.0 | |||
| 2009-11-01T00:00 | 2897 | 722 | 1.5 | -10.7 | |||
| 2009-11-01T00:00 | 2902 | 722 | 1.5 | -10.6 | |||
| 2009-11-01T00:00 | 2921 | 720 | 1.3 | -10.4 | |||
| 2009-11-01T00:00 | 2925 | 720 | 1.3 | -10.3 | 314 | 6 | |
| 2009-11-01T00:00 | 2934 | 719 | 1.3 | -10.2 | |||
| 2009-11-01T00:00 | 2939 | 718 | 1.3 | -10.2 | |||
| 2009-11-01T00:00 | 2956 | 717 | 1.2 | -10.4 | |||
| 2009-11-01T00:00 | 2965 | 716 | 1.2 | -10.5 | |||
| 2009-11-01T00:00 | 2969 | 716 | 1.1 | -10.6 | 317 | 7 | |
| 2009-11-01T00:00 | 2990 | 714 | 1.0 | -10.8 | |||
| 2009-11-01T00:00 | 2997 | 713 | 0.9 | -10.9 | |||
| 2009-11-01T00:00 | 3001 | 713 | 0.9 | -11.0 | |||
| 2009-11-01T00:00 | 3010 | 712 | 0.9 | -11.1 | 319 | 7 | |
| 2009-11-01T00:00 | 3022 | 711 | 0.8 | -11.3 | |||
| 2009-11-01T00:00 | 3030 | 710 | 0.8 | -11.4 | |||
| 2009-11-01T00:00 | 3035 | 710 | 0.8 | -11.4 | |||
| 2009-11-01T00:00 | 3053 | 708 | 0.7 | -11.1 | 319 | 7 | |
| 2009-11-01T00:00 | 3057 | 708 | 0.7 | -11.1 | |||
| 2009-11-01T00:00 | 3067 | 707 | 0.6 | -10.8 | |||
| 2009-11-01T00:00 | 3072 | 706 | 0.6 | -10.7 | |||
| 2009-11-01T00:00 | 3095 | 704 | 0.4 | -10.2 | |||
| 2009-11-01T00:00 | 3099 | 704 | 0.4 | -10.1 | 318 | 7 | |
| 2009-11-01T00:00 | 3102 | 704 | 0.3 | -10.1 | |||
| 2009-11-01T00:00 | 3106 | 703 | 0.3 | -10.0 | |||
| 2009-11-01T00:00 | 3127 | 702 | 0.1 | -9.4 | |||
| 2009-11-01T00:00 | 3135 | 701 | 0.1 | -9.2 | |||
| 2009-11-01T00:00 | 3139 | 701 | 0.1 | -9.1 | 316 | 7 | |
| 2009-11-01T00:00 | 3146 | 700 | 0.0 | -8.7 | |||
| 2009-11-01T00:00 | 3160 | 699 | 0.0 | -8.0 | |||
| 2009-11-01T00:00 | 3168 | 698 | -0.1 | -7.2 | |||
| 2009-11-01T00:00 | 3172 | 698 | -0.1 | -7.1 | |||
| 2009-11-01T00:00 | 3193 | 696 | -0.2 | -6.8 | |||
| 2009-11-01T00:00 | 3202 | 695 | -0.3 | -6.7 | |||
| 2009-11-01T00:00 | 3207 | 695 | -0.3 | -6.6 | |||
| 2009-11-01T00:00 | 3224 | 693 | -0.4 | -6.4 | |||
| 2009-11-01T00:00 | 3236 | 692 | -0.5 | -6.3 | |||
| 2009-11-01T00:00 | 3240 | 692 | -0.5 | -6.3 | |||
| 2009-11-01T00:00 | 3259 | 690 | -0.7 | -6.1 | |||
| 2009-11-01T00:00 | 3274 | 689 | -0.8 | -6.0 | |||
| 2009-11-01T00:00 | 3279 | 688 | -0.8 | -6.0 | |||
| 2009-11-01T00:00 | 3296 | 687 | -0.9 | -5.9 | |||
| 2009-11-01T00:00 | 3304 | 686 | -1.0 | -5.8 | |||
| 2009-11-01T00:00 | 3308 | 686 | -1.0 | -5.8 | |||
| 2009-11-01T00:00 | 3327 | 684 | -1.2 | -5.6 | |||
| 2009-11-01T00:00 | 3334 | 684 | -1.2 | -5.6 | |||
| 2009-11-01T00:00 | 3337 | 683 | -1.2 | -5.6 | |||
| 2009-11-01T00:00 | 3356 | 682 | -1.4 | -5.5 | |||
| 2009-11-01T00:00 | 3364 | 681 | -1.4 | -5.4 | |||
| 2009-11-01T00:00 | 3367 | 681 | -1.4 | -5.4 | |||
| 2009-11-01T00:00 | 3388 | 679 | -1.6 | -5.4 | 316 | 4 | |
| 2009-11-01T00:00 | 3397 | 678 | -1.7 | -5.4 | |||
| 2009-11-01T00:00 | 3402 | 678 | -1.7 | -5.4 | |||
| 2009-11-01T00:00 | 3425 | 676 | -1.9 | -5.4 | |||
| 2009-11-01T00:00 | 3435 | 675 | -2.0 | -5.5 | |||
| 2009-11-01T00:00 | 3440 | 675 | -2.0 | -5.5 | |||
| 2009-11-01T00:00 | 3462 | 673 | -2.2 | -5.6 | |||
| 2009-11-01T00:00 | 3469 | 672 | -2.2 | -5.7 | |||
| 2009-11-01T00:00 | 3473 | 672 | -2.3 | -5.8 | |||
| 2009-11-01T00:00 | 3491 | 670 | -2.3 | -5.9 | |||
| 2009-11-01T00:00 | 3499 | 670 | -2.4 | -6.0 | |||
| 2009-11-01T00:00 | 3503 | 669 | -2.5 | -6.0 | |||
| 2009-11-01T00:00 | 3525 | 668 | -2.5 | -6.2 | |||
| 2009-11-01T00:00 | 3534 | 667 | -2.5 | -6.2 | |||
| 2009-11-01T00:00 | 3539 | 666 | -2.5 | -6.3 | |||
| 2009-11-01T00:00 | 3562 | 664 | -2.7 | -6.5 | |||
| 2009-11-01T00:00 | 3571 | 664 | -2.7 | -6.7 | |||
| 2009-11-01T00:00 | 3576 | 663 | -2.7 | -6.7 | |||
| 2009-11-01T00:00 | 3596 | 662 | -2.8 | -6.9 | |||
| 2009-11-01T00:00 | 3603 | 661 | -2.9 | -7.0 | |||
| 2009-11-01T00:00 | 3607 | 661 | -2.9 | -7.0 | |||
| 2009-11-01T00:00 | 3629 | 659 | -3.1 | -7.2 | |||
| 2009-11-01T00:00 | 3641 | 658 | -3.2 | -7.4 | |||
| 2009-11-01T00:00 | 3647 | 657 | -3.2 | -7.4 | |||
| 2009-11-01T00:00 | 3651 | 657 | -3.2 | -7.5 | 300 | 7 | |
| 2009-11-01T00:00 | 3666 | 656 | -3.4 | -7.6 | |||
| 2009-11-01T00:00 | 3677 | 655 | -3.4 | -7.7 | |||
| 2009-11-01T00:00 | 3681 | 654 | -3.5 | -7.7 | |||
| 2009-11-01T00:00 | 3696 | 653 | -3.6 | -7.8 | |||
| 2009-11-01T00:00 | 3707 | 652 | -3.7 | -7.9 | |||
| 2009-11-01T00:00 | 3710 | 652 | -3.7 | -7.9 | |||
| 2009-11-01T00:00 | 3728 | 651 | -3.9 | -8.1 | |||
| 2009-11-01T00:00 | 3742 | 649 | -4.0 | -8.1 | |||
| 2009-11-01T00:00 | 3747 | 649 | -4.0 | -8.1 | |||
| 2009-11-01T00:00 | 3766 | 648 | -4.2 | -8.1 | |||
| 2009-11-01T00:00 | 3778 | 646 | -4.3 | -8.2 | |||
| 2009-11-01T00:00 | 3782 | 646 | -4.3 | -8.1 | |||
| 2009-11-01T00:00 | 3799 | 645 | -4.5 | -8.2 | |||
| 2009-11-01T00:00 | 3812 | 644 | -4.6 | -8.2 | |||
| 2009-11-01T00:00 | 3817 | 643 | -4.6 | -8.2 | |||
| 2009-11-01T00:00 | 3836 | 642 | -4.8 | -8.4 | |||
| 2009-11-01T00:00 | 3852 | 640 | -4.9 | -8.4 | |||
| 2009-11-01T00:00 | 3857 | 640 | -4.9 | -8.4 | |||
| 2009-11-01T00:00 | 3875 | 639 | -5.1 | -8.6 | |||
| 2009-11-01T00:00 | 3885 | 638 | -5.1 | -8.6 | |||
| 2009-11-01T00:00 | 3889 | 637 | -5.2 | -8.6 | |||
| 2009-11-01T00:00 | 3905 | 636 | -5.3 | -8.8 | |||
| 2009-11-01T00:00 | 3909 | 636 | -5.3 | -8.8 | 304 | 5 | |
| 2009-11-01T00:00 | 3919 | 635 | -5.4 | -8.9 | |||
| 2009-11-01T00:00 | 3923 | 635 | -5.4 | -8.9 | |||
| 2009-11-01T00:00 | 3942 | 633 | -5.3 | -9.0 | |||
| 2009-11-01T00:00 | 3955 | 632 | -5.4 | -9.1 | |||
| 2009-11-01T00:00 | 3960 | 632 | -5.4 | -9.1 | |||
| 2009-11-01T00:00 | 3978 | 630 | -5.6 | -9.4 | |||
| 2009-11-01T00:00 | 3992 | 629 | -5.8 | -9.6 | |||
| 2009-11-01T00:00 | 3997 | 629 | -5.8 | -9.7 | |||
| 2009-11-01T00:00 | 4016 | 627 | -6.1 | -9.9 | |||
| 2009-11-01T00:00 | 4030 | 626 | -6.1 | -10.0 | |||
| 2009-11-01T00:00 | 4035 | 626 | -6.1 | -10.0 | |||
| 2009-11-01T00:00 | 4052 | 624 | -6.3 | -10.2 | |||
| 2009-11-01T00:00 | 4063 | 623 | -6.4 | -10.3 | |||
| 2009-11-01T00:00 | 4067 | 623 | -6.5 | -10.3 | |||
| 2009-11-01T00:00 | 4085 | 622 | -6.7 | -10.4 | |||
| 2009-11-01T00:00 | 4100 | 621 | -6.8 | -10.5 | |||
| 2009-11-01T00:00 | 4105 | 620 | -6.8 | -10.5 | |||
| 2009-11-01T00:00 | 4123 | 619 | -7.0 | -10.7 | |||
| 2009-11-01T00:00 | 4134 | 618 | -7.1 | -10.8 | |||
| 2009-11-01T00:00 | 4137 | 618 | -7.2 | -10.8 | |||
| 2009-11-01T00:00 | 4158 | 616 | -7.3 | -11.0 | |||
| 2009-11-01T00:00 | 4169 | 615 | -7.4 | -11.2 | |||
| 2009-11-01T00:00 | 4174 | 615 | -7.5 | -11.2 | |||
| 2009-11-01T00:00 | 4178 | 614 | -7.6 | -11.3 | 309 | 3 | |
| 2009-11-01T00:00 | 4197 | 613 | -7.7 | -11.7 | |||
| 2009-11-01T00:00 | 4206 | 612 | -7.8 | -11.9 | |||
| 2009-11-01T00:00 | 4210 | 612 | -7.8 | -12.0 | |||
| 2009-11-01T00:00 | 4231 | 610 | -8.1 | -12.7 | |||
| 2009-11-01T00:00 | 4240 | 609 | -8.2 | -13.0 | |||
| 2009-11-01T00:00 | 4244 | 609 | -8.2 | -13.2 | |||
| 2009-11-01T00:00 | 4268 | 607 | -8.4 | -14.3 | |||
| 2009-11-01T00:00 | 4280 | 606 | -8.3 | -14.8 | |||
| 2009-11-01T00:00 | 4285 | 606 | -8.0 | -14.8 | |||
| 2009-11-01T00:00 | 4313 | 604 | -7.6 | -16.0 | |||
| 2009-11-01T00:00 | 4324 | 603 | -7.4 | -16.6 | |||
| 2009-11-01T00:00 | 4329 | 603 | -7.3 | -16.9 | |||
| 2009-11-01T00:00 | 4354 | 601 | -7.1 | -18.6 | |||
| 2009-11-01T00:00 | 4362 | 600 | -7.0 | -19.2 | |||
| 2009-11-01T00:00 | 4363 | 600 | -7.0 | -19.3 | |||
| 2009-11-01T00:00 | 4367 | 600 | -7.0 | -19.6 | |||
| 2009-11-01T00:00 | 4390 | 598 | -6.9 | -21.7 | |||
| 2009-11-01T00:00 | 4399 | 597 | -6.9 | -22.5 | |||
| 2009-11-01T00:00 | 4404 | 597 | -6.8 | -23.0 | |||
| 2009-11-01T00:00 | 4429 | 595 | -6.7 | -25.4 | |||
| 2009-11-01T00:00 | 4440 | 594 | -6.7 | -26.6 | |||
| 2009-11-01T00:00 | 4445 | 594 | -6.6 | -27.1 | |||
| 2009-11-01T00:00 | 4469 | 592 | -6.6 | -29.4 | 325 | 11 | |
| 2009-11-01T00:00 | 4478 | 591 | -6.7 | -30.4 | |||
| 2009-11-01T00:00 | 4482 | 591 | -6.7 | -30.8 | |||
| 2009-11-01T00:00 | 4503 | 589 | -6.7 | -32.6 | |||
| 2009-11-01T00:00 | 4511 | 589 | -6.8 | -33.3 | |||
| 2009-11-01T00:00 | 4516 | 588 | -6.8 | -33.7 | |||
| 2009-11-01T00:00 | 4539 | 587 | -7.0 | -35.3 | |||
| 2009-11-01T00:00 | 4550 | 586 | -7.0 | -35.9 | |||
| 2009-11-01T00:00 | 4555 | 585 | -7.1 | -36.1 | |||
| 2009-11-01T00:00 | 4578 | 584 | -7.3 | -37.2 | |||
| 2009-11-01T00:00 | 4586 | 583 | -7.3 | -37.4 | |||
| 2009-11-01T00:00 | 4589 | 583 | -7.3 | -37.5 | |||
| 2009-11-01T00:00 | 4612 | 581 | -7.5 | -38.1 | |||
| 2009-11-01T00:00 | 4630 | 580 | -7.5 | -38.4 | |||
| 2009-11-01T00:00 | 4636 | 579 | -7.5 | -38.5 | |||
| 2009-11-01T00:00 | 4656 | 578 | -7.7 | -38.7 | |||
| 2009-11-01T00:00 | 4668 | 577 | -7.8 | -38.8 | |||
| 2009-11-01T00:00 | 4672 | 577 | -7.9 | -38.9 | |||
| 2009-11-01T00:00 | 4695 | 575 | -8.1 | -39.0 | |||
| 2009-11-01T00:00 | 4706 | 574 | -8.1 | -39.0 | |||
| 2009-11-01T00:00 | 4711 | 574 | -8.2 | -39.1 | |||
| 2009-11-01T00:00 | 4736 | 572 | -8.4 | -39.2 | |||
| 2009-11-01T00:00 | 4744 | 571 | -8.5 | -39.3 | |||
| 2009-11-01T00:00 | 4749 | 571 | -8.5 | -39.3 | 327 | 10 | |
| 2009-11-01T00:00 | 4773 | 569 | -8.5 | -39.5 | |||
| 2009-11-01T00:00 | 4784 | 568 | -8.6 | -39.7 | |||
| 2009-11-01T00:00 | 4790 | 568 | -8.6 | -39.8 | |||
| 2009-11-01T00:00 | 4816 | 566 | -8.8 | -40.3 | |||
| 2009-11-01T00:00 | 4824 | 565 | -8.8 | -40.5 | |||
| 2009-11-01T00:00 | 4828 | 565 | -8.8 | -40.7 | |||
| 2009-11-01T00:00 | 4851 | 563 | -9.0 | -41.4 | |||
| 2009-11-01T00:00 | 4862 | 563 | -9.1 | -41.7 | |||
| 2009-11-01T00:00 | 4868 | 562 | -9.1 | -41.9 | |||
| 2009-11-01T00:00 | 4893 | 560 | -9.2 | -42.7 | |||
| 2009-11-01T00:00 | 4907 | 559 | -9.2 | -43.1 | |||
| 2009-11-01T00:00 | 4911 | 559 | -9.2 | -43.2 | |||
| 2009-11-01T00:00 | 4935 | 557 | -9.4 | -44.0 | |||
| 2009-11-01T00:00 | 4946 | 557 | -9.4 | -44.3 | |||
| 2009-11-01T00:00 | 4951 | 556 | -9.4 | -44.5 | |||
| 2009-11-01T00:00 | 4974 | 554 | -9.5 | -45.0 | |||
| 2009-11-01T00:00 | 4983 | 554 | -9.4 | -45.1 | |||
| 2009-11-01T00:00 | 4987 | 554 | -9.4 | -45.2 | |||
| 2009-11-01T00:00 | 5010 | 552 | -9.6 | -45.7 | |||
| 2009-11-01T00:00 | 5021 | 551 | -9.7 | -45.8 | |||
| 2009-11-01T00:00 | 5026 | 551 | -9.7 | -45.9 | |||
| 2009-11-01T00:00 | 5042 | 550 | -9.8 | -46.1 | 333 | 12 | |
| 2009-11-01T00:00 | 5053 | 549 | -9.9 | -46.2 | |||
| 2009-11-01T00:00 | 5064 | 548 | -10.0 | -46.3 | |||
| 2009-11-01T00:00 | 5069 | 548 | -10.1 | -46.3 | |||
| 2009-11-01T00:00 | 5097 | 546 | -10.2 | -46.4 | |||
| 2009-11-01T00:00 | 5108 | 545 | -10.2 | -46.4 | |||
| 2009-11-01T00:00 | 5114 | 545 | -10.3 | -46.4 | |||
| 2009-11-01T00:00 | 5140 | 543 | -10.4 | -46.4 | |||
| 2009-11-01T00:00 | 5153 | 542 | -10.4 | -46.2 | |||
| 2009-11-01T00:00 | 5157 | 541 | -10.4 | -46.2 | |||
| 2009-11-01T00:00 | 5180 | 540 | -10.4 | -45.9 | |||
| 2009-11-01T00:00 | 5189 | 539 | -10.4 | -45.8 | |||
| 2009-11-01T00:00 | 5194 | 539 | -10.4 | -45.8 | |||
| 2009-11-01T00:00 | 5220 | 537 | -10.5 | -45.4 | |||
| 2009-11-01T00:00 | 5231 | 536 | -10.6 | -45.3 | |||
| 2009-11-01T00:00 | 5237 | 536 | -10.6 | -45.2 | |||
| 2009-11-01T00:00 | 5264 | 534 | -10.8 | -44.8 | |||
| 2009-11-01T00:00 | 5274 | 533 | -10.8 | -44.5 | |||
| 2009-11-01T00:00 | 5280 | 533 | -10.8 | -44.4 | |||
| 2009-11-01T00:00 | 5305 | 531 | -10.9 | -43.7 | |||
| 2009-11-01T00:00 | 5314 | 531 | -11.0 | -43.5 | |||
| 2009-11-01T00:00 | 5318 | 530 | -11.0 | -43.4 | |||
| 2009-11-01T00:00 | 5341 | 529 | -11.1 | -42.5 | |||
| 2009-11-01T00:00 | 5346 | 528 | -11.1 | -42.3 | 335 | 13 | |
| 2009-11-01T00:00 | 5354 | 528 | -11.1 | -42.0 | |||
| 2009-11-01T00:00 | 5359 | 527 | -11.2 | -41.8 | |||
| 2009-11-01T00:00 | 5382 | 526 | -11.4 | -40.8 | |||
| 2009-11-01T00:00 | 5391 | 525 | -11.5 | -40.4 | |||
| 2009-11-01T00:00 | 5396 | 525 | -11.5 | -40.2 | |||
| 2009-11-01T00:00 | 5420 | 523 | -11.7 | -39.1 | |||
| 2009-11-01T00:00 | 5430 | 523 | -11.8 | -38.7 | |||
| 2009-11-01T00:00 | 5434 | 522 | -11.8 | -38.5 | |||
| 2009-11-01T00:00 | 5462 | 520 | -12.1 | -37.4 | |||
| 2009-11-01T00:00 | 5474 | 520 | -12.2 | -36.9 | |||
| 2009-11-01T00:00 | 5481 | 519 | -12.3 | -36.7 | |||
| 2009-11-01T00:00 | 5509 | 517 | -12.6 | -35.7 | |||
| 2009-11-01T00:00 | 5522 | 516 | -12.7 | -35.2 | |||
| 2009-11-01T00:00 | 5527 | 516 | -12.7 | -35.0 | |||
| 2009-11-01T00:00 | 5549 | 514 | -12.9 | -34.3 | |||
| 2009-11-01T00:00 | 5558 | 514 | -13.0 | -34.0 | |||
| 2009-11-01T00:00 | 5563 | 514 | -13.1 | -33.8 | |||
| 2009-11-01T00:00 | 5587 | 512 | -13.3 | -32.9 | |||
| 2009-11-01T00:00 | 5598 | 511 | -13.4 | -32.5 | |||
| 2009-11-01T00:00 | 5603 | 511 | -13.4 | -32.3 | |||
| 2009-11-01T00:00 | 5631 | 509 | -13.7 | -31.3 | |||
| 2009-11-01T00:00 | 5642 | 508 | -13.8 | -30.9 | |||
| 2009-11-01T00:00 | 5648 | 508 | -13.8 | -30.7 | 337 | 15 | |
| 2009-11-01T00:00 | 5679 | 506 | -14.1 | -29.8 | |||
| 2009-11-01T00:00 | 5693 | 505 | -14.2 | -29.5 | |||
| 2009-11-01T00:00 | 5701 | 504 | -14.3 | -29.4 | |||
| 2009-11-01T00:00 | 5731 | 502 | -14.6 | -29.0 | |||
| 2009-11-01T00:00 | 5746 | 501 | -14.8 | -28.8 | |||
| 2009-11-01T00:00 | 5750 | 501 | -14.8 | -28.8 | |||
| 2009-11-01T00:00 | 5766 | 500 | -14.9 | -28.6 | |||
| 2009-11-01T00:00 | 5776 | 499 | -15.0 | -28.5 | |||
| 2009-11-01T00:00 | 5787 | 499 | -15.1 | -28.4 | |||
| 2009-11-01T00:00 | 5792 | 498 | -15.1 | -28.3 | |||
| 2009-11-01T00:00 | 5819 | 496 | -15.2 | -27.8 | |||
| 2009-11-01T00:00 | 5830 | 496 | -15.2 | -27.6 | |||
| 2009-11-01T00:00 | 5836 | 495 | -15.3 | -27.5 | |||
| 2009-11-01T00:00 | 5861 | 494 | -15.5 | -27.2 | |||
| 2009-11-01T00:00 | 5870 | 493 | -15.6 | -27.1 | |||
| 2009-11-01T00:00 | 5874 | 493 | -15.6 | -27.0 | |||
| 2009-11-01T00:00 | 5896 | 491 | -15.8 | -26.9 | |||
| 2009-11-01T00:00 | 5910 | 491 | -15.9 | -26.7 | |||
| 2009-11-01T00:00 | 5915 | 490 | -15.9 | -26.6 | |||
| 2009-11-01T00:00 | 5938 | 489 | -16.1 | -26.5 | |||
| 2009-11-01T00:00 | 5948 | 488 | -16.2 | -26.4 | |||
| 2009-11-01T00:00 | 5952 | 488 | -16.3 | -26.4 | |||
| 2009-11-01T00:00 | 5962 | 487 | -16.4 | -26.4 | 337 | 19 | |
| 2009-11-01T00:00 | 5976 | 486 | -16.5 | -26.5 | |||
| 2009-11-01T00:00 | 5986 | 486 | -16.6 | -26.5 | |||
| 2009-11-01T00:00 | 5991 | 485 | -16.6 | -26.5 | |||
| 2009-11-01T00:00 | 6015 | 484 | -16.9 | -26.6 | |||
| 2009-11-01T00:00 | 6024 | 483 | -17.0 | -26.7 | |||
| 2009-11-01T00:00 | 6029 | 483 | -17.0 | -26.7 | |||
| 2009-11-01T00:00 | 6052 | 481 | -17.1 | -26.9 | |||
| 2009-11-01T00:00 | 6065 | 481 | -17.2 | -27.0 | |||
| 2009-11-01T00:00 | 6070 | 480 | -17.3 | -27.0 | |||
| 2009-11-01T00:00 | 6099 | 478 | -17.4 | -27.3 | |||
| 2009-11-01T00:00 | 6114 | 477 | -17.6 | -27.4 | |||
| 2009-11-01T00:00 | 6121 | 477 | -17.6 | -27.5 | |||
| 2009-11-01T00:00 | 6152 | 475 | -17.8 | -27.5 | |||
| 2009-11-01T00:00 | 6160 | 474 | -17.8 | -27.5 | |||
| 2009-11-01T00:00 | 6163 | 474 | -17.9 | -27.5 | |||
| 2009-11-01T00:00 | 6184 | 473 | -18.1 | -27.6 | |||
| 2009-11-01T00:00 | 6194 | 472 | -18.2 | -27.5 | |||
| 2009-11-01T00:00 | 6203 | 472 | -18.2 | -27.4 | |||
| 2009-11-01T00:00 | 6226 | 470 | -18.5 | -27.3 | |||
| 2009-11-01T00:00 | 6236 | 470 | -18.6 | -27.2 | |||
| 2009-11-01T00:00 | 6240 | 469 | -18.6 | -27.2 | |||
| 2009-11-01T00:00 | 6260 | 468 | -18.8 | -27.0 | 333 | 20 | |
| 2009-11-01T00:00 | 6265 | 468 | -18.9 | -27.0 | |||
| 2009-11-01T00:00 | 6275 | 467 | -18.9 | -26.9 | |||
| 2009-11-01T00:00 | 6280 | 467 | -19.0 | -26.9 | |||
| 2009-11-01T00:00 | 6305 | 465 | -19.2 | -26.7 | |||
| 2009-11-01T00:00 | 6314 | 465 | -19.3 | -26.6 | |||
| 2009-11-01T00:00 | 6319 | 464 | -19.3 | -26.6 | |||
| 2009-11-01T00:00 | 6342 | 463 | -19.5 | -26.5 | |||
| 2009-11-01T00:00 | 6356 | 462 | -19.7 | -26.5 | |||
| 2009-11-01T00:00 | 6360 | 462 | -19.7 | -26.5 | |||
| 2009-11-01T00:00 | 6384 | 460 | -20.0 | -26.5 | |||
| 2009-11-01T00:00 | 6394 | 460 | -20.0 | -26.4 | |||
| 2009-11-01T00:00 | 6399 | 459 | -20.1 | -26.4 | |||
| 2009-11-01T00:00 | 6424 | 458 | -20.3 | -26.6 | |||
| 2009-11-01T00:00 | 6435 | 457 | -20.4 | -26.7 | |||
| 2009-11-01T00:00 | 6440 | 457 | -20.5 | -26.7 | |||
| 2009-11-01T00:00 | 6467 | 455 | -20.8 | -27.0 | |||
| 2009-11-01T00:00 | 6483 | 454 | -20.9 | -27.2 | |||
| 2009-11-01T00:00 | 6488 | 454 | -20.9 | -27.3 | |||
| 2009-11-01T00:00 | 6514 | 452 | -21.1 | -27.8 | |||
| 2009-11-01T00:00 | 6524 | 452 | -21.2 | -28.0 | |||
| 2009-11-01T00:00 | 6529 | 451 | -21.3 | -28.2 | |||
| 2009-11-01T00:00 | 6553 | 450 | -21.5 | -28.8 | |||
| 2009-11-01T00:00 | 6558 | 450 | -21.5 | -28.9 | 332 | 19 | |
| 2009-11-01T00:00 | 6563 | 449 | -21.6 | -29.1 | |||
| 2009-11-01T00:00 | 6568 | 449 | -21.6 | -29.1 | |||
| 2009-11-01T00:00 | 6590 | 448 | -21.8 | -29.8 | |||
| 2009-11-01T00:00 | 6603 | 447 | -21.8 | -30.1 | |||
| 2009-11-01T00:00 | 6607 | 447 | -21.8 | -30.1 | |||
| 2009-11-01T00:00 | 6633 | 445 | -21.8 | -30.6 | |||
| 2009-11-01T00:00 | 6646 | 444 | -21.8 | -30.8 | |||
| 2009-11-01T00:00 | 6653 | 444 | -21.7 | -30.9 | |||
| 2009-11-01T00:00 | 6683 | 442 | -21.8 | -31.2 | |||
| 2009-11-01T00:00 | 6694 | 441 | -21.8 | -31.3 | |||
| 2009-11-01T00:00 | 6699 | 441 | -21.8 | -31.3 | |||
| 2009-11-01T00:00 | 6724 | 440 | -21.9 | -31.4 | |||
| 2009-11-01T00:00 | 6738 | 439 | -22.0 | -31.5 | |||
| 2009-11-01T00:00 | 6743 | 439 | -22.0 | -31.5 | |||
| 2009-11-01T00:00 | 6767 | 437 | -22.2 | -31.6 | |||
| 2009-11-01T00:00 | 6778 | 436 | -22.2 | -31.7 | |||
| 2009-11-01T00:00 | 6783 | 436 | -22.3 | -31.7 | |||
| 2009-11-01T00:00 | 6808 | 435 | -22.5 | -31.9 | |||
| 2009-11-01T00:00 | 6821 | 434 | -22.6 | -32.0 | |||
| 2009-11-01T00:00 | 6825 | 434 | -22.7 | -32.0 | |||
| 2009-11-01T00:00 | 6849 | 432 | -22.9 | -32.2 | |||
| 2009-11-01T00:00 | 6859 | 432 | -23.0 | -32.2 | 336 | 16 | |
| 2009-11-01T00:00 | 6864 | 431 | -23.0 | -32.3 | |||
| 2009-11-01T00:00 | 6889 | 430 | -23.3 | -32.5 | |||
| 2009-11-01T00:00 | 6900 | 429 | -23.3 | -32.5 | |||
| 2009-11-01T00:00 | 6905 | 429 | -23.4 | -32.5 | |||
| 2009-11-01T00:00 | 6930 | 427 | -23.6 | -32.7 | |||
| 2009-11-01T00:00 | 6945 | 427 | -23.7 | -32.8 | |||
| 2009-11-01T00:00 | 6950 | 426 | -23.7 | -32.8 | |||
| 2009-11-01T00:00 | 6975 | 425 | -24.0 | -33.0 | |||
| 2009-11-01T00:00 | 6985 | 424 | -24.0 | -33.2 | |||
| 2009-11-01T00:00 | 6990 | 424 | -24.1 | -33.2 | |||
| 2009-11-01T00:00 | 7015 | 423 | -24.4 | -33.6 | |||
| 2009-11-01T00:00 | 7024 | 422 | -24.5 | -33.8 | |||
| 2009-11-01T00:00 | 7033 | 422 | -24.5 | -33.9 | |||
| 2009-11-01T00:00 | 7061 | 420 | -24.8 | -34.4 | |||
| 2009-11-01T00:00 | 7075 | 419 | -24.8 | -34.6 | |||
| 2009-11-01T00:00 | 7083 | 419 | -24.8 | -34.7 | |||
| 2009-11-01T00:00 | 7114 | 417 | -24.8 | -35.1 | |||
| 2009-11-01T00:00 | 7123 | 416 | -24.8 | -35.2 | |||
| 2009-11-01T00:00 | 7128 | 416 | -24.8 | -35.2 | |||
| 2009-11-01T00:00 | 7149 | 415 | -24.9 | -35.4 | |||
| 2009-11-01T00:00 | 7160 | 414 | -24.9 | -35.4 | |||
| 2009-11-01T00:00 | 7164 | 414 | -24.9 | -35.4 | 331 | 20 | |
| 2009-11-01T00:00 | 7186 | 413 | -25.0 | -35.6 | |||
| 2009-11-01T00:00 | 7197 | 412 | -25.0 | -35.6 | |||
| 2009-11-01T00:00 | 7202 | 412 | -25.0 | -35.6 | |||
| 2009-11-01T00:00 | 7228 | 410 | -25.1 | -35.7 | |||
| 2009-11-01T00:00 | 7242 | 410 | -25.1 | -35.7 | |||
| 2009-11-01T00:00 | 7247 | 409 | -25.2 | -35.7 | |||
| 2009-11-01T00:00 | 7274 | 408 | -25.4 | -35.8 | |||
| 2009-11-01T00:00 | 7287 | 407 | -25.4 | -35.8 | |||
| 2009-11-01T00:00 | 7293 | 407 | -25.5 | -35.9 | |||
| 2009-11-01T00:00 | 7320 | 405 | -25.7 | -36.0 | |||
| 2009-11-01T00:00 | 7328 | 405 | -25.8 | -36.1 | |||
| 2009-11-01T00:00 | 7332 | 405 | -25.8 | -36.1 | |||
| 2009-11-01T00:00 | 7352 | 403 | -26.0 | -36.4 | |||
| 2009-11-01T00:00 | 7364 | 403 | -26.1 | -36.5 | |||
| 2009-11-01T00:00 | 7369 | 402 | -26.1 | -36.5 | |||
| 2009-11-01T00:00 | 7390 | 401 | -26.4 | -36.7 | |||
| 2009-11-01T00:00 | 7399 | 401 | -26.4 | -36.7 | |||
| 2009-11-01T00:00 | 7404 | 401 | -26.4 | -36.8 | |||
| 2009-11-01T00:00 | 7413 | 400 | -26.5 | -36.8 | |||
| 2009-11-01T00:00 | 7426 | 399 | -26.5 | -37.0 | |||
| 2009-11-01T00:00 | 7438 | 399 | -26.6 | -37.0 | |||
| 2009-11-01T00:00 | 7442 | 398 | -26.6 | -37.1 | |||
| 2009-11-01T00:00 | 7446 | 398 | -26.6 | -37.1 | 325 | 20 | |
| 2009-11-01T00:00 | 7463 | 397 | -26.7 | -37.3 | |||
| 2009-11-01T00:00 | 7473 | 397 | -26.8 | -37.4 | |||
| 2009-11-01T00:00 | 7478 | 396 | -26.8 | -37.4 | |||
| 2009-11-01T00:00 | 7500 | 395 | -26.9 | -37.7 | |||
| 2009-11-01T00:00 | 7512 | 395 | -27.0 | -37.9 | |||
| 2009-11-01T00:00 | 7516 | 394 | -27.0 | -38.0 | |||
| 2009-11-01T00:00 | 7539 | 393 | -27.2 | -38.4 | |||
| 2009-11-01T00:00 | 7549 | 392 | -27.2 | -38.5 | |||
| 2009-11-01T00:00 | 7555 | 392 | -27.2 | -38.6 | |||
| 2009-11-01T00:00 | 7584 | 391 | -27.3 | -39.0 | |||
| 2009-11-01T00:00 | 7604 | 390 | -27.3 | -39.3 | |||
| 2009-11-01T00:00 | 7610 | 389 | -27.4 | -39.4 | |||
| 2009-11-01T00:00 | 7640 | 388 | -27.7 | -39.9 | |||
| 2009-11-01T00:00 | 7649 | 387 | -27.7 | -40.0 | |||
| 2009-11-01T00:00 | 7654 | 387 | -27.7 | -40.0 | |||
| 2009-11-01T00:00 | 7677 | 386 | -28.0 | -40.4 | |||
| 2009-11-01T00:00 | 7689 | 385 | -28.1 | -40.5 | |||
| 2009-11-01T00:00 | 7693 | 385 | -28.1 | -40.6 | |||
| 2009-11-01T00:00 | 7716 | 384 | -28.4 | -40.9 | |||
| 2009-11-01T00:00 | 7727 | 383 | -28.4 | -41.1 | |||
| 2009-11-01T00:00 | 7733 | 383 | -28.5 | -41.1 | |||
| 2009-11-01T00:00 | 7742 | 382 | -28.6 | -41.3 | 324 | 17 | |
| 2009-11-01T00:00 | 7756 | 381 | -28.7 | -41.5 | |||
| 2009-11-01T00:00 | 7763 | 381 | -28.8 | -41.6 | |||
| 2009-11-01T00:00 | 7770 | 381 | -28.8 | -41.7 | |||
| 2009-11-01T00:00 | 7790 | 380 | -29.0 | -42.0 | |||
| 2009-11-01T00:00 | 7799 | 379 | -29.1 | -42.1 | |||
| 2009-11-01T00:00 | 7804 | 379 | -29.1 | -42.1 | |||
| 2009-11-01T00:00 | 7828 | 378 | -29.4 | -42.4 | |||
| 2009-11-01T00:00 | 7837 | 377 | -29.5 | -42.5 | |||
| 2009-11-01T00:00 | 7847 | 377 | -29.5 | -42.6 | |||
| 2009-11-01T00:00 | 7872 | 375 | -29.7 | -42.8 | |||
| 2009-11-01T00:00 | 7884 | 375 | -29.8 | -42.9 | |||
| 2009-11-01T00:00 | 7890 | 374 | -29.8 | -43.0 | |||
| 2009-11-01T00:00 | 7916 | 373 | -30.0 | -43.2 | |||
| 2009-11-01T00:00 | 7928 | 372 | -30.1 | -43.2 | |||
| 2009-11-01T00:00 | 7932 | 372 | -30.1 | -43.3 | |||
| 2009-11-01T00:00 | 7954 | 371 | -30.3 | -43.5 | |||
| 2009-11-01T00:00 | 7964 | 370 | -30.3 | -43.5 | |||
| 2009-11-01T00:00 | 7968 | 370 | -30.4 | -43.5 | |||
| 2009-11-01T00:00 | 7993 | 369 | -30.6 | -43.8 | |||
| 2009-11-01T00:00 | 8008 | 368 | -30.7 | -43.9 | |||
| 2009-11-01T00:00 | 8012 | 368 | -30.7 | -44.0 | |||
| 2009-11-01T00:00 | 8023 | 367 | -30.9 | -44.1 | 327 | 14 | |
| 2009-11-01T00:00 | 8039 | 367 | -31.0 | -44.2 | |||
| 2009-11-01T00:00 | 8051 | 366 | -31.1 | -44.3 | |||
| 2009-11-01T00:00 | 8057 | 366 | -31.2 | -44.4 | |||
| 2009-11-01T00:00 | 8083 | 364 | -31.5 | -44.7 | |||
| 2009-11-01T00:00 | 8096 | 364 | -31.6 | -44.8 | |||
| 2009-11-01T00:00 | 8101 | 363 | -31.6 | -44.8 | |||
| 2009-11-01T00:00 | 8123 | 362 | -31.9 | -45.1 | |||
| 2009-11-01T00:00 | 8133 | 362 | -31.9 | -45.1 | |||
| 2009-11-01T00:00 | 8137 | 361 | -32.0 | -45.2 | |||
| 2009-11-01T00:00 | 8160 | 360 | -32.2 | -45.5 | |||
| 2009-11-01T00:00 | 8173 | 360 | -32.3 | -45.5 | |||
| 2009-11-01T00:00 | 8178 | 359 | -32.3 | -45.6 | |||
| 2009-11-01T00:00 | 8199 | 358 | -32.6 | -45.9 | |||
| 2009-11-01T00:00 | 8208 | 358 | -32.7 | -46.0 | |||
| 2009-11-01T00:00 | 8217 | 357 | -32.7 | -46.0 | |||
| 2009-11-01T00:00 | 8242 | 356 | -33.0 | -46.3 | |||
| 2009-11-01T00:00 | 8253 | 356 | -33.0 | -46.3 | |||
| 2009-11-01T00:00 | 8259 | 355 | -33.1 | -46.4 | |||
| 2009-11-01T00:00 | 8283 | 354 | -33.3 | -46.6 | |||
| 2009-11-01T00:00 | 8293 | 354 | -33.4 | -46.6 | |||
| 2009-11-01T00:00 | 8297 | 353 | -33.4 | -46.6 | |||
| 2009-11-01T00:00 | 8306 | 353 | -33.5 | -46.7 | 338 | 13 | |
| 2009-11-01T00:00 | 8319 | 352 | -33.7 | -46.8 | |||
| 2009-11-01T00:00 | 8332 | 352 | -33.8 | -46.9 | |||
| 2009-11-01T00:00 | 8338 | 351 | -33.8 | -46.9 | |||
| 2009-11-01T00:00 | 8363 | 350 | -34.0 | -47.2 | |||
| 2009-11-01T00:00 | 8373 | 350 | -34.1 | -47.2 | |||
| 2009-11-01T00:00 | 8377 | 349 | -34.1 | -47.3 | |||
| 2009-11-01T00:00 | 8395 | 348 | -34.3 | -47.5 | |||
| 2009-11-01T00:00 | 8402 | 348 | -34.4 | -47.5 | |||
| 2009-11-01T00:00 | 8410 | 348 | -34.4 | -47.6 | |||
| 2009-11-01T00:00 | 8430 | 347 | -34.7 | -47.9 | |||
| 2009-11-01T00:00 | 8439 | 346 | -34.7 | -47.9 | |||
| 2009-11-01T00:00 | 8443 | 346 | -34.7 | -48.0 | |||
| 2009-11-01T00:00 | 8464 | 345 | -35.0 | -48.3 | |||
| 2009-11-01T00:00 | 8477 | 344 | -35.0 | -48.4 | |||
| 2009-11-01T00:00 | 8481 | 344 | -35.0 | -48.4 | |||
| 2009-11-01T00:00 | 8505 | 343 | -35.2 | -48.7 | |||
| 2009-11-01T00:00 | 8517 | 342 | -35.3 | -48.8 | |||
| 2009-11-01T00:00 | 8523 | 342 | -35.3 | -48.8 | |||
| 2009-11-01T00:00 | 8548 | 341 | -35.6 | -49.0 | |||
| 2009-11-01T00:00 | 8559 | 340 | -35.6 | -49.0 | |||
| 2009-11-01T00:00 | 8562 | 340 | -35.6 | -49.1 | |||
| 2009-11-01T00:00 | 8570 | 340 | -35.7 | -49.1 | 345 | 16 | |
| 2009-11-01T00:00 | 8581 | 339 | -35.8 | -49.2 | |||
| 2009-11-01T00:00 | 8593 | 339 | -35.9 | -49.3 | |||
| 2009-11-01T00:00 | 8597 | 338 | -35.9 | -49.3 | |||
| 2009-11-01T00:00 | 8620 | 337 | -36.1 | -49.4 | |||
| 2009-11-01T00:00 | 8631 | 337 | -36.2 | -49.5 | |||
| 2009-11-01T00:00 | 8636 | 337 | -36.2 | -49.5 | |||
| 2009-11-01T00:00 | 8662 | 335 | -36.5 | -49.8 | |||
| 2009-11-01T00:00 | 8676 | 335 | -36.5 | -49.8 | |||
| 2009-11-01T00:00 | 8680 | 334 | -36.5 | -49.9 | |||
| 2009-11-01T00:00 | 8706 | 333 | -36.8 | -50.3 | |||
| 2009-11-01T00:00 | 8718 | 333 | -36.9 | -50.5 | |||
| 2009-11-01T00:00 | 8729 | 332 | -36.9 | -50.6 | |||
| 2009-11-01T00:00 | 8755 | 331 | -37.1 | -51.0 | |||
| 2009-11-01T00:00 | 8763 | 330 | -37.2 | -51.1 | |||
| 2009-11-01T00:00 | 8767 | 330 | -37.2 | -51.2 | |||
| 2009-11-01T00:00 | 8791 | 329 | -37.5 | -51.6 | |||
| 2009-11-01T00:00 | 8809 | 328 | -37.6 | -51.7 | |||
| 2009-11-01T00:00 | 8814 | 328 | -37.7 | -51.8 | |||
| 2009-11-01T00:00 | 8840 | 327 | -37.8 | -51.9 | |||
| 2009-11-01T00:00 | 8849 | 326 | -37.9 | -51.9 | |||
| 2009-11-01T00:00 | 8857 | 326 | -37.9 | -51.9 | |||
| 2009-11-01T00:00 | 8861 | 326 | -37.9 | -51.9 | 335 | 21 | |
| 2009-11-01T00:00 | 8878 | 325 | -38.1 | -51.9 | |||
| 2009-11-01T00:00 | 8886 | 325 | -38.1 | -51.9 | |||
| 2009-11-01T00:00 | 8890 | 324 | -38.1 | -51.9 | |||
| 2009-11-01T00:00 | 8911 | 323 | -38.3 | -51.8 | |||
| 2009-11-01T00:00 | 8924 | 323 | -38.4 | -51.7 | |||
| 2009-11-01T00:00 | 8928 | 323 | -38.4 | -51.7 | |||
| 2009-11-01T00:00 | 8954 | 321 | -38.7 | -51.7 | |||
| 2009-11-01T00:00 | 8973 | 321 | -38.8 | -51.6 | |||
| 2009-11-01T00:00 | 8980 | 320 | -38.9 | -51.6 | |||
| 2009-11-01T00:00 | 9009 | 319 | -39.1 | -51.6 | |||
| 2009-11-01T00:00 | 9020 | 318 | -39.2 | -51.6 | |||
| 2009-11-01T00:00 | 9025 | 318 | -39.2 | -51.7 | |||
| 2009-11-01T00:00 | 9049 | 317 | -39.5 | -51.8 | |||
| 2009-11-01T00:00 | 9063 | 316 | -39.6 | -51.8 | |||
| 2009-11-01T00:00 | 9067 | 316 | -39.6 | -51.9 | |||
| 2009-11-01T00:00 | 9089 | 315 | -39.9 | -52.0 | |||
| 2009-11-01T00:00 | 9100 | 315 | -39.9 | -52.0 | |||
| 2009-11-01T00:00 | 9104 | 314 | -40.0 | -52.0 | |||
| 2009-11-01T00:00 | 9124 | 314 | -40.2 | -52.1 | |||
| 2009-11-01T00:00 | 9133 | 313 | -40.3 | -52.0 | |||
| 2009-11-01T00:00 | 9141 | 313 | -40.4 | -52.0 | 330 | 23 | |
| 2009-11-01T00:00 | 9167 | 312 | -40.7 | -52.0 | |||
| 2009-11-01T00:00 | 9180 | 311 | -40.8 | -52.0 | |||
| 2009-11-01T00:00 | 9187 | 311 | -40.8 | -52.0 | |||
| 2009-11-01T00:00 | 9216 | 309 | -41.1 | -51.9 | |||
| 2009-11-01T00:00 | 9231 | 309 | -41.1 | -51.8 | |||
| 2009-11-01T00:00 | 9235 | 308 | -41.1 | -51.8 | |||
| 2009-11-01T00:00 | 9259 | 307 | -41.3 | -51.8 | |||
| 2009-11-01T00:00 | 9271 | 307 | -41.3 | -51.8 | |||
| 2009-11-01T00:00 | 9276 | 307 | -41.4 | -51.8 | |||
| 2009-11-01T00:00 | 9297 | 306 | -41.6 | -52.0 | |||
| 2009-11-01T00:00 | 9305 | 305 | -41.7 | -52.0 | |||
| 2009-11-01T00:00 | 9313 | 305 | -41.7 | -52.0 | |||
| 2009-11-01T00:00 | 9335 | 304 | -42.0 | -52.2 | |||
| 2009-11-01T00:00 | 9345 | 304 | -42.0 | -52.2 | |||
| 2009-11-01T00:00 | 9349 | 303 | -42.0 | -52.3 | |||
| 2009-11-01T00:00 | 9370 | 302 | -42.3 | -52.5 | |||
| 2009-11-01T00:00 | 9380 | 302 | -42.4 | -52.6 | |||
| 2009-11-01T00:00 | 9384 | 302 | -42.4 | -52.6 | |||
| 2009-11-01T00:00 | 9403 | 301 | -42.6 | -52.9 | |||
| 2009-11-01T00:00 | 9416 | 300 | -42.7 | -52.9 | 328 | 23 | |
| 2009-11-01T00:00 | 9420 | 300 | -42.7 | -52.9 | |||
| 2009-11-01T00:00 | 9424 | 300 | -42.8 | -53.0 | |||
| 2009-11-01T00:00 | 9441 | 299 | -43.0 | -53.2 | |||
| 2009-11-01T00:00 | 9449 | 299 | -43.0 | -53.3 | |||
| 2009-11-01T00:00 | 9457 | 299 | -43.1 | -53.3 | |||
| 2009-11-01T00:00 | 9479 | 298 | -43.3 | -53.6 | |||
| 2009-11-01T00:00 | 9489 | 297 | -43.4 | -53.6 | |||
| 2009-11-01T00:00 | 9494 | 297 | -43.4 | -53.7 | |||
| 2009-11-01T00:00 | 9519 | 296 | -43.6 | -53.8 | |||
| 2009-11-01T00:00 | 9533 | 295 | -43.7 | -53.9 | |||
| 2009-11-01T00:00 | 9538 | 295 | -43.7 | -53.9 | |||
| 2009-11-01T00:00 | 9561 | 294 | -44.0 | -54.1 | |||
| 2009-11-01T00:00 | 9572 | 293 | -44.0 | -54.1 | |||
| 2009-11-01T00:00 | 9576 | 293 | -44.1 | -54.1 | |||
| 2009-11-01T00:00 | 9599 | 292 | -44.3 | -54.3 | |||
| 2009-11-01T00:00 | 9617 | 292 | -44.3 | -54.3 | |||
| 2009-11-01T00:00 | 9622 | 291 | -44.3 | -54.3 | |||
| 2009-11-01T00:00 | 9651 | 290 | -44.6 | -54.4 | |||
| 2009-11-01T00:00 | 9661 | 290 | -44.6 | -54.5 | |||
| 2009-11-01T00:00 | 9672 | 289 | -44.7 | -54.5 | |||
| 2009-11-01T00:00 | 9697 | 288 | -44.9 | -54.7 | |||
| 2009-11-01T00:00 | 9702 | 288 | -44.9 | -54.8 | 326 | 26 | |
| 2009-11-01T00:00 | 9706 | 288 | -44.9 | -54.8 | |||
| 2009-11-01T00:00 | 9711 | 287 | -45.0 | -54.8 | |||
| 2009-11-01T00:00 | 9733 | 286 | -45.2 | -55.1 | |||
| 2009-11-01T00:00 | 9747 | 286 | -45.3 | -55.2 | |||
| 2009-11-01T00:00 | 9751 | 286 | -45.3 | -55.2 | |||
| 2009-11-01T00:00 | 9775 | 285 | -45.5 | -55.4 | |||
| 2009-11-01T00:00 | 9790 | 284 | -45.6 | -55.5 | |||
| 2009-11-01T00:00 | 9795 | 284 | -45.7 | -55.5 | |||
| 2009-11-01T00:00 | 9817 | 283 | -45.9 | -55.7 | |||
| 2009-11-01T00:00 | 9828 | 282 | -46.0 | -55.8 | |||
| 2009-11-01T00:00 | 9832 | 282 | -46.0 | -55.8 | |||
| 2009-11-01T00:00 | 9853 | 281 | -46.3 | -56.0 | |||
| 2009-11-01T00:00 | 9863 | 281 | -46.3 | -56.1 | |||
| 2009-11-01T00:00 | 9873 | 281 | -46.4 | -56.1 | |||
| 2009-11-01T00:00 | 9898 | 279 | -46.7 | -56.4 | |||
| 2009-11-01T00:00 | 9909 | 279 | -46.8 | -56.5 | |||
| 2009-11-01T00:00 | 9919 | 279 | -46.8 | -56.5 | |||
| 2009-11-01T00:00 | 9946 | 277 | -47.0 | -56.7 | |||
| 2009-11-01T00:00 | 9957 | 277 | -47.0 | -56.8 | |||
| 2009-11-01T00:00 | 9963 | 277 | -47.1 | -56.9 | |||
| 2009-11-01T00:00 | 9989 | 276 | -47.3 | -57.2 | 325 | 28 | |
| 2009-11-01T00:00 | 10003 | 275 | -47.4 | -57.3 | |||
| 2009-11-01T00:00 | 10007 | 275 | -47.4 | -57.3 | |||
| 2009-11-01T00:00 | 10029 | 274 | -47.7 | -57.5 | |||
| 2009-11-01T00:00 | 10043 | 273 | -47.7 | -57.6 | |||
| 2009-11-01T00:00 | 10047 | 273 | -47.8 | -57.7 | |||
| 2009-11-01T00:00 | 10070 | 272 | -48.0 | -57.8 | |||
| 2009-11-01T00:00 | 10085 | 272 | -48.0 | -57.9 | |||
| 2009-11-01T00:00 | 10089 | 271 | -48.0 | -57.9 | |||
| 2009-11-01T00:00 | 10112 | 271 | -48.2 | -58.0 | |||
| 2009-11-01T00:00 | 10126 | 270 | -48.2 | -58.0 | |||
| 2009-11-01T00:00 | 10130 | 270 | -48.2 | -58.0 | |||
| 2009-11-01T00:00 | 10152 | 269 | -48.4 | -58.2 | |||
| 2009-11-01T00:00 | 10161 | 269 | -48.5 | -58.2 | |||
| 2009-11-01T00:00 | 10169 | 268 | -48.5 | -58.2 | |||
| 2009-11-01T00:00 | 10193 | 267 | -48.7 | -58.4 | |||
| 2009-11-01T00:00 | 10205 | 267 | -48.8 | -58.4 | |||
| 2009-11-01T00:00 | 10210 | 267 | -48.8 | -58.5 | |||
| 2009-11-01T00:00 | 10236 | 266 | -49.0 | -58.6 | |||
| 2009-11-01T00:00 | 10248 | 265 | -49.0 | -58.6 | |||
| 2009-11-01T00:00 | 10252 | 265 | -49.1 | -58.7 | |||
| 2009-11-01T00:00 | 10264 | 264 | -49.2 | -58.8 | 323 | 31 | |
| 2009-11-01T00:00 | 10272 | 264 | -49.3 | -58.9 | |||
| 2009-11-01T00:00 | 10284 | 264 | -49.4 | -58.9 | |||
| 2009-11-01T00:00 | 10288 | 263 | -49.4 | -58.9 | |||
| 2009-11-01T00:00 | 10309 | 263 | -49.7 | -59.2 | |||
| 2009-11-01T00:00 | 10324 | 262 | -49.7 | -59.2 | |||
| 2009-11-01T00:00 | 10329 | 262 | -49.7 | -59.2 | |||
| 2009-11-01T00:00 | 10353 | 261 | -50.0 | -59.5 | |||
| 2009-11-01T00:00 | 10365 | 260 | -50.0 | -59.5 | |||
| 2009-11-01T00:00 | 10369 | 260 | -50.0 | -59.5 | |||
| 2009-11-01T00:00 | 10391 | 259 | -50.3 | -59.8 | |||
| 2009-11-01T00:00 | 10404 | 259 | -50.3 | -59.8 | |||
| 2009-11-01T00:00 | 10409 | 259 | -50.4 | -59.8 | |||
| 2009-11-01T00:00 | 10431 | 258 | -50.6 | -60.1 | |||
| 2009-11-01T00:00 | 10443 | 257 | -50.7 | -60.1 | |||
| 2009-11-01T00:00 | 10447 | 257 | -50.7 | -60.2 | |||
| 2009-11-01T00:00 | 10470 | 256 | -51.0 | -60.4 | |||
| 2009-11-01T00:00 | 10480 | 256 | -51.0 | -60.5 | |||
| 2009-11-01T00:00 | 10490 | 255 | -51.1 | -60.5 | |||
| 2009-11-01T00:00 | 10514 | 254 | -51.4 | -60.8 | |||
| 2009-11-01T00:00 | 10522 | 254 | -51.5 | -60.8 | |||
| 2009-11-01T00:00 | 10531 | 254 | -51.5 | -60.9 | 328 | 32 | |
| 2009-11-01T00:00 | 10553 | 253 | -51.8 | -61.2 | |||
| 2009-11-01T00:00 | 10561 | 253 | -51.9 | -61.2 | |||
| 2009-11-01T00:00 | 10569 | 252 | -51.9 | -61.2 | |||
| 2009-11-01T00:00 | 10593 | 251 | -52.2 | -61.5 | |||
| 2009-11-01T00:00 | 10605 | 251 | -52.2 | -61.6 | |||
| 2009-11-01T00:00 | 10610 | 251 | -52.3 | -61.6 | |||
| 2009-11-01T00:00 | 10628 | 250 | -52.5 | -61.8 | |||
| 2009-11-01T00:00 | 10636 | 250 | -52.6 | -61.9 | |||
| 2009-11-01T00:00 | 10648 | 249 | -52.6 | -62.0 | |||
| 2009-11-01T00:00 | 10652 | 249 | -52.6 | -62.0 | |||
| 2009-11-01T00:00 | 10673 | 248 | -52.9 | -62.2 | |||
| 2009-11-01T00:00 | 10686 | 248 | -53.0 | -62.3 | |||
| 2009-11-01T00:00 | 10691 | 248 | -53.0 | -62.3 | |||
| 2009-11-01T00:00 | 10713 | 247 | -53.3 | -62.5 | |||
| 2009-11-01T00:00 | 10726 | 246 | -53.3 | -62.6 | |||
| 2009-11-01T00:00 | 10730 | 246 | -53.3 | -62.6 | |||
| 2009-11-01T00:00 | 10752 | 245 | -53.6 | -62.9 | |||
| 2009-11-01T00:00 | 10764 | 245 | -53.7 | -62.9 | |||
| 2009-11-01T00:00 | 10768 | 245 | -53.7 | -62.9 | |||
| 2009-11-01T00:00 | 10789 | 244 | -54.0 | -63.2 | |||
| 2009-11-01T00:00 | 10798 | 243 | -54.0 | -63.2 | 327 | 32 | |
| 2009-11-01T00:00 | 10802 | 243 | -54.0 | -63.2 | |||
| 2009-11-01T00:00 | 10807 | 243 | -54.0 | -63.2 | |||
| 2009-11-01T00:00 | 10830 | 242 | -54.3 | -63.5 | |||
| 2009-11-01T00:00 | 10845 | 242 | -54.4 | -63.6 | |||
| 2009-11-01T00:00 | 10850 | 242 | -54.4 | -63.6 | |||
| 2009-11-01T00:00 | 10874 | 241 | -54.7 | -63.9 | |||
| 2009-11-01T00:00 | 10887 | 240 | -54.8 | -64.0 | |||
| 2009-11-01T00:00 | 10892 | 240 | -54.8 | -64.0 | |||
| 2009-11-01T00:00 | 10914 | 239 | -55.0 | -64.2 | |||
| 2009-11-01T00:00 | 10927 | 239 | -55.1 | -64.3 | |||
| 2009-11-01T00:00 | 10932 | 238 | -55.2 | -64.3 | |||
| 2009-11-01T00:00 | 10953 | 238 | -55.4 | -64.5 | |||
| 2009-11-01T00:00 | 10965 | 237 | -55.5 | -64.6 | |||
| 2009-11-01T00:00 | 10969 | 237 | -55.5 | -64.7 | |||
| 2009-11-01T00:00 | 10993 | 236 | -55.8 | -64.9 | |||
| 2009-11-01T00:00 | 11010 | 236 | -55.8 | -65.0 | |||
| 2009-11-01T00:00 | 11015 | 235 | -55.9 | -65.0 | |||
| 2009-11-01T00:00 | 11043 | 234 | -56.2 | -65.3 | |||
| 2009-11-01T00:00 | 11060 | 234 | -56.3 | -65.3 | |||
| 2009-11-01T00:00 | 11066 | 233 | -56.3 | -65.4 | |||
| 2009-11-01T00:00 | 11087 | 233 | -56.5 | -65.6 | 327 | 32 | |
| 2009-11-01T00:00 | 11092 | 233 | -56.6 | -65.6 | |||
| 2009-11-01T00:00 | 11105 | 232 | -56.6 | -65.7 | |||
| 2009-11-01T00:00 | 11109 | 232 | -56.7 | -65.7 | |||
| 2009-11-01T00:00 | 11131 | 231 | -56.9 | -65.9 | |||
| 2009-11-01T00:00 | 11144 | 231 | -57.0 | -66.0 | |||
| 2009-11-01T00:00 | 11148 | 230 | -57.0 | -66.1 | |||
| 2009-11-01T00:00 | 11170 | 230 | -57.3 | -66.3 | |||
| 2009-11-01T00:00 | 11182 | 229 | -57.4 | -66.4 | |||
| 2009-11-01T00:00 | 11186 | 229 | -57.4 | -66.4 | |||
| 2009-11-01T00:00 | 11208 | 228 | -57.7 | -66.7 | |||
| 2009-11-01T00:00 | 11223 | 228 | -57.8 | -66.8 | |||
| 2009-11-01T00:00 | 11228 | 228 | -57.8 | -66.8 | |||
| 2009-11-01T00:00 | 11252 | 227 | -58.0 | -67.1 | |||
| 2009-11-01T00:00 | 11265 | 226 | -58.1 | -67.1 | |||
| 2009-11-01T00:00 | 11269 | 226 | -58.2 | -67.2 | |||
| 2009-11-01T00:00 | 11290 | 225 | -58.4 | -67.4 | |||
| 2009-11-01T00:00 | 11303 | 225 | -58.5 | -67.5 | |||
| 2009-11-01T00:00 | 11307 | 225 | -58.5 | -67.5 | |||
| 2009-11-01T00:00 | 11327 | 224 | -58.8 | -67.8 | |||
| 2009-11-01T00:00 | 11338 | 224 | -58.8 | -67.9 | |||
| 2009-11-01T00:00 | 11342 | 223 | -58.9 | -67.9 | |||
| 2009-11-01T00:00 | 11346 | 223 | -58.9 | -67.9 | 327 | 33 | |
| 2009-11-01T00:00 | 11363 | 223 | -59.1 | -68.1 | |||
| 2009-11-01T00:00 | 11377 | 222 | -59.1 | -68.2 | |||
| 2009-11-01T00:00 | 11382 | 222 | -59.2 | -68.2 | |||
| 2009-11-01T00:00 | 11406 | 221 | -59.4 | -68.5 | |||
| 2009-11-01T00:00 | 11419 | 221 | -59.5 | -68.5 | |||
| 2009-11-01T00:00 | 11423 | 221 | -59.5 | -68.5 | |||
| 2009-11-01T00:00 | 11443 | 220 | -59.7 | -68.8 | |||
| 2009-11-01T00:00 | 11453 | 220 | -59.8 | -68.8 | |||
| 2009-11-01T00:00 | 11457 | 219 | -59.8 | -68.9 | |||
| 2009-11-01T00:00 | 11475 | 219 | -60.0 | -69.1 | |||
| 2009-11-01T00:00 | 11488 | 218 | -60.1 | -69.1 | |||
| 2009-11-01T00:00 | 11492 | 218 | -60.1 | -69.2 | |||
| 2009-11-01T00:00 | 11515 | 217 | -60.4 | -69.4 | |||
| 2009-11-01T00:00 | 11532 | 217 | -60.4 | -69.5 | |||
| 2009-11-01T00:00 | 11537 | 217 | -60.5 | -69.5 | |||
| 2009-11-01T00:00 | 11563 | 216 | -60.7 | -69.7 | |||
| 2009-11-01T00:00 | 11577 | 215 | -60.7 | -69.8 | |||
| 2009-11-01T00:00 | 11587 | 215 | -60.7 | -69.8 | |||
| 2009-11-01T00:00 | 11610 | 214 | -61.0 | -70.0 | |||
| 2009-11-01T00:00 | 11614 | 214 | -61.0 | -70.0 | 325 | 33 | |
| 2009-11-01T00:00 | 11618 | 214 | -61.0 | -70.0 | |||
| 2009-11-01T00:00 | 11627 | 213 | -61.0 | -70.0 | |||
| 2009-11-01T00:00 | 11649 | 213 | -61.3 | -70.3 | |||
| 2009-11-01T00:00 | 11657 | 212 | -61.3 | -70.3 | |||
| 2009-11-01T00:00 | 11666 | 212 | -61.3 | -70.3 | |||
| 2009-11-01T00:00 | 11687 | 211 | -61.6 | -70.6 | |||
| 2009-11-01T00:00 | 11695 | 211 | -61.6 | -70.6 | |||
| 2009-11-01T00:00 | 11703 | 211 | -61.7 | -70.7 | |||
| 2009-11-01T00:00 | 11722 | 210 | -62.0 | -70.9 | |||
| 2009-11-01T00:00 | 11732 | 210 | -61.9 | -70.9 | |||
| 2009-11-01T00:00 | 11736 | 210 | -61.9 | -70.9 | |||
| 2009-11-01T00:00 | 11756 | 209 | -62.2 | -71.2 | |||
| 2009-11-01T00:00 | 11769 | 209 | -62.2 | -71.2 | |||
| 2009-11-01T00:00 | 11774 | 208 | -62.2 | -71.3 | |||
| 2009-11-01T00:00 | 11801 | 208 | -62.6 | -71.7 | |||
| 2009-11-01T00:00 | 11820 | 207 | -62.5 | -71.6 | |||
| 2009-11-01T00:00 | 11827 | 207 | -62.6 | -71.6 | |||
| 2009-11-01T00:00 | 11856 | 206 | -62.5 | -71.7 | |||
| 2009-11-01T00:00 | 11871 | 205 | -62.3 | -71.5 | |||
| 2009-11-01T00:00 | 11876 | 205 | -62.3 | -71.5 | |||
| 2009-11-01T00:00 | 11890 | 205 | -62.4 | -71.6 | 324 | 36 | |
| 2009-11-01T00:00 | 11900 | 204 | -62.5 | -71.7 | |||
| 2009-11-01T00:00 | 11914 | 204 | -62.4 | -71.7 | |||
| 2009-11-01T00:00 | 11918 | 204 | -62.4 | -71.7 | |||
| 2009-11-01T00:00 | 11942 | 203 | -62.2 | -71.6 | |||
| 2009-11-01T00:00 | 11955 | 202 | -61.9 | -71.3 | |||
| 2009-11-01T00:00 | 11960 | 202 | -61.9 | -71.3 | |||
| 2009-11-01T00:00 | 11981 | 202 | -61.9 | -71.3 | |||
| 2009-11-01T00:00 | 11991 | 201 | -61.9 | -71.3 | |||
| 2009-11-01T00:00 | 11994 | 201 | -61.9 | -71.3 | |||
| 2009-11-01T00:00 | 12012 | 201 | -62.0 | -71.4 | |||
| 2009-11-01T00:00 | 12024 | 200 | -61.8 | -71.3 | |||
| 2009-11-01T00:00 | 12029 | 200 | -61.8 | -71.3 | |||
| 2009-11-01T00:00 | 12030 | 200 | -61.8 | -71.3 | |||
| 2009-11-01T00:00 | 12049 | 199 | -61.9 | ||||
| 2009-11-01T00:00 | 12062 | 199 | -61.8 | ||||
| 2009-11-01T00:00 | 12067 | 199 | -61.8 | ||||
| 2009-11-01T00:00 | 12087 | 198 | -61.8 | ||||
| 2009-11-01T00:00 | 12098 | 198 | -61.5 | ||||
| 2009-11-01T00:00 | 12102 | 198 | -61.3 | ||||
| 2009-11-01T00:00 | 12121 | 197 | -61.1 | ||||
| 2009-11-01T00:00 | 12132 | 197 | -60.8 | ||||
| 2009-11-01T00:00 | 12136 | 197 | -60.7 | 330 | 35 | ||
| 2009-11-01T00:00 | 12156 | 196 | -60.2 | ||||
| 2009-11-01T00:00 | 12169 | 196 | -59.1 | ||||
| 2009-11-01T00:00 | 12174 | 195 | -59.1 | ||||
| 2009-11-01T00:00 | 12195 | 195 | -59.1 | ||||
| 2009-11-01T00:00 | 12207 | 194 | -59.0 | ||||
| 2009-11-01T00:00 | 12211 | 194 | -59.0 | ||||
| 2009-11-01T00:00 | 12231 | 194 | -59.2 | ||||
| 2009-11-01T00:00 | 12241 | 193 | -59.3 | ||||
| 2009-11-01T00:00 | 12245 | 193 | -59.3 | ||||
| 2009-11-01T00:00 | 12264 | 193 | -59.5 | ||||
| 2009-11-01T00:00 | 12277 | 192 | -59.5 | ||||
| 2009-11-01T00:00 | 12282 | 192 | -59.5 | ||||
| 2009-11-01T00:00 | 12303 | 191 | -59.7 | ||||
| 2009-11-01T00:00 | 12316 | 191 | -59.7 | ||||
| 2009-11-01T00:00 | 12320 | 191 | -59.7 | ||||
| 2009-11-01T00:00 | 12342 | 190 | -60.0 | ||||
| 2009-11-01T00:00 | 12357 | 190 | -60.0 | ||||
| 2009-11-01T00:00 | 12362 | 190 | -60.0 | ||||
| 2009-11-01T00:00 | 12389 | 189 | -60.2 | ||||
| 2009-11-01T00:00 | 12395 | 189 | -60.2 | 338 | 32 | ||
| 2009-11-01T00:00 | 12407 | 188 | -60.1 | ||||
| 2009-11-01T00:00 | 12413 | 188 | -60.1 | ||||
| 2009-11-01T00:00 | 12447 | 187 | -60.1 | ||||
| 2009-11-01T00:00 | 12469 | 186 | -60.3 | ||||
| 2009-11-01T00:00 | 12477 | 186 | -60.3 | ||||
| 2009-11-01T00:00 | 12510 | 185 | -60.6 | ||||
| 2009-11-01T00:00 | 12525 | 185 | -60.6 | ||||
| 2009-11-01T00:00 | 12530 | 185 | -60.7 | ||||
| 2009-11-01T00:00 | 12560 | 184 | -61.0 | ||||
| 2009-11-01T00:00 | 12581 | 183 | -61.1 | ||||
| 2009-11-01T00:00 | 12589 | 183 | -61.2 | ||||
| 2009-11-01T00:00 | 12622 | 182 | -61.6 | ||||
| 2009-11-01T00:00 | 12641 | 181 | -61.7 | ||||
| 2009-11-01T00:00 | 12647 | 181 | -61.8 | ||||
| 2009-11-01T00:00 | 12675 | 180 | -62.1 | ||||
| 2009-11-01T00:00 | 12689 | 180 | -62.1 | ||||
| 2009-11-01T00:00 | 12694 | 180 | -62.2 | ||||
| 2009-11-01T00:00 | 12722 | 179 | -62.5 | ||||
| 2009-11-01T00:00 | 12744 | 178 | -62.5 | ||||
| 2009-11-01T00:00 | 12751 | 178 | -62.6 | ||||
| 2009-11-01T00:00 | 12771 | 178 | -62.9 | 341 | 27 | ||
| 2009-11-01T00:00 | 12785 | 177 | -63.0 | ||||
| 2009-11-01T00:00 | 12803 | 177 | -63.1 | ||||
| 2009-11-01T00:00 | 12809 | 176 | -63.1 | ||||
| 2009-11-01T00:00 | 12835 | 176 | -63.4 | ||||
| 2009-11-01T00:00 | 12848 | 175 | -63.5 | ||||
| 2009-11-01T00:00 | 12853 | 175 | -63.5 | ||||
| 2009-11-01T00:00 | 12875 | 175 | -63.8 | ||||
| 2009-11-01T00:00 | 12888 | 174 | -63.9 | ||||
| 2009-11-01T00:00 | 12892 | 174 | -63.9 | ||||
| 2009-11-01T00:00 | 12913 | 173 | -64.2 | ||||
| 2009-11-01T00:00 | 12924 | 173 | -64.2 | ||||
| 2009-11-01T00:00 | 12928 | 173 | -64.2 | ||||
| 2009-11-01T00:00 | 12951 | 172 | -64.5 | ||||
| 2009-11-01T00:00 | 12969 | 172 | -64.6 | ||||
| 2009-11-01T00:00 | 12975 | 172 | -64.6 | ||||
| 2009-11-01T00:00 | 13006 | 171 | -64.5 | ||||
| 2009-11-01T00:00 | 13025 | 170 | -64.3 | ||||
| 2009-11-01T00:00 | 13031 | 170 | -64.3 | ||||
| 2009-11-01T00:00 | 13061 | 169 | -64.5 | ||||
| 2009-11-01T00:00 | 13076 | 169 | -64.5 | ||||
| 2009-11-01T00:00 | 13082 | 169 | -64.5 | 331 | 26 | ||
| 2009-11-01T00:00 | 13104 | 168 | -64.8 | ||||
| 2009-11-01T00:00 | 13115 | 168 | -64.8 | ||||
| 2009-11-01T00:00 | 13122 | 168 | -64.8 | ||||
| 2009-11-01T00:00 | 13141 | 167 | -65.1 | ||||
| 2009-11-01T00:00 | 13150 | 167 | -64.9 | ||||
| 2009-11-01T00:00 | 13159 | 167 | -64.9 | ||||
| 2009-11-01T00:00 | 13181 | 166 | -65.1 | ||||
| 2009-11-01T00:00 | 13191 | 166 | -65.0 | ||||
| 2009-11-01T00:00 | 13200 | 166 | -65.0 | ||||
| 2009-11-01T00:00 | 13224 | 165 | -65.2 | ||||
| 2009-11-01T00:00 | 13233 | 165 | -65.2 | ||||
| 2009-11-01T00:00 | 13243 | 164 | -65.1 | ||||
| 2009-11-01T00:00 | 13265 | 164 | -65.2 | ||||
| 2009-11-01T00:00 | 13273 | 164 | -65.1 | ||||
| 2009-11-01T00:00 | 13281 | 163 | -65.2 | ||||
| 2009-11-01T00:00 | 13301 | 163 | -65.4 | ||||
| 2009-11-01T00:00 | 13309 | 163 | -65.3 | ||||
| 2009-11-01T00:00 | 13318 | 162 | -65.2 | ||||
| 2009-11-01T00:00 | 13338 | 162 | -65.3 | 319 | 31 | ||
| 2009-11-01T00:00 | 13347 | 162 | -64.9 | ||||
| 2009-11-01T00:00 | 13355 | 161 | -64.6 | ||||
| 2009-11-01T00:00 | 13376 | 161 | -64.6 | ||||
| 2009-11-01T00:00 | 13385 | 161 | -64.5 | ||||
| 2009-11-01T00:00 | 13394 | 160 | -64.4 | ||||
| 2009-11-01T00:00 | 13414 | 160 | -64.3 | ||||
| 2009-11-01T00:00 | 13421 | 160 | -63.8 | ||||
| 2009-11-01T00:00 | 13428 | 159 | -63.7 | ||||
| 2009-11-01T00:00 | 13446 | 159 | -63.3 | ||||
| 2009-11-01T00:00 | 13454 | 159 | -63.2 | ||||
| 2009-11-01T00:00 | 13463 | 159 | -63.2 | ||||
| 2009-11-01T00:00 | 13483 | 158 | -63.2 | ||||
| 2009-11-01T00:00 | 13492 | 158 | -62.9 | ||||
| 2009-11-01T00:00 | 13500 | 158 | -62.9 | ||||
| 2009-11-01T00:00 | 13520 | 157 | -62.9 | ||||
| 2009-11-01T00:00 | 13527 | 157 | -62.9 | ||||
| 2009-11-01T00:00 | 13534 | 157 | -62.9 | ||||
| 2009-11-01T00:00 | 13552 | 156 | -63.1 | ||||
| 2009-11-01T00:00 | 13561 | 156 | -63.0 | ||||
| 2009-11-01T00:00 | 13569 | 156 | -63.0 | ||||
| 2009-11-01T00:00 | 13577 | 156 | -63.0 | 325 | 32 | ||
| 2009-11-01T00:00 | 13590 | 155 | -63.1 | ||||
| 2009-11-01T00:00 | 13598 | 155 | -62.8 | ||||
| 2009-11-01T00:00 | 13607 | 155 | -62.8 | ||||
| 2009-11-01T00:00 | 13629 | 154 | -62.8 | ||||
| 2009-11-01T00:00 | 13638 | 154 | -62.7 | ||||
| 2009-11-01T00:00 | 13643 | 154 | -62.6 | ||||
| 2009-11-01T00:00 | 13665 | 153 | -62.5 | ||||
| 2009-11-01T00:00 | 13678 | 153 | -62.0 | ||||
| 2009-11-01T00:00 | 13682 | 153 | -61.9 | ||||
| 2009-11-01T00:00 | 13704 | 152 | -61.6 | ||||
| 2009-11-01T00:00 | 13718 | 152 | -61.5 | ||||
| 2009-11-01T00:00 | 13722 | 152 | -61.5 | ||||
| 2009-11-01T00:00 | 13745 | 151 | -61.7 | ||||
| 2009-11-01T00:00 | 13758 | 151 | -61.6 | ||||
| 2009-11-01T00:00 | 13763 | 151 | -61.6 | ||||
| 2009-11-01T00:00 | 13786 | 150 | -61.8 | ||||
| 2009-11-01T00:00 | 13799 | 150 | -61.8 | ||||
| 2009-11-01T00:00 | 13804 | 150 | -61.8 | ||||
| 2009-11-01T00:00 | 13827 | 149 | -62.0 | ||||
| 2009-11-01T00:00 | 13841 | 149 | -62.0 | ||||
| 2009-11-01T00:00 | 13846 | 149 | -62.0 | 336 | 25 | ||
| 2009-11-01T00:00 | 13871 | 148 | -62.2 | ||||
| 2009-11-01T00:00 | 13886 | 148 | -62.2 | ||||
| 2009-11-01T00:00 | 13891 | 148 | -62.2 | ||||
| 2009-11-01T00:00 | 13914 | 147 | -62.5 | ||||
| 2009-11-01T00:00 | 13921 | 147 | -62.4 | ||||
| 2009-11-01T00:00 | 13929 | 147 | -62.5 | ||||
| 2009-11-01T00:00 | 13950 | 146 | -62.7 | ||||
| 2009-11-01T00:00 | 13960 | 146 | -62.7 | ||||
| 2009-11-01T00:00 | 13971 | 146 | -62.6 | ||||
| 2009-11-01T00:00 | 13996 | 145 | -62.8 | ||||
| 2009-11-01T00:00 | 14005 | 145 | -62.8 | ||||
| 2009-11-01T00:00 | 14015 | 145 | -62.9 | ||||
| 2009-11-01T00:00 | 14040 | 144 | -63.1 | ||||
| 2009-11-01T00:00 | 14050 | 144 | -63.1 | ||||
| 2009-11-01T00:00 | 14055 | 144 | -63.2 | ||||
| 2009-11-01T00:00 | 14078 | 143 | -63.4 | ||||
| 2009-11-01T00:00 | 14090 | 143 | -63.4 | ||||
| 2009-11-01T00:00 | 14094 | 143 | -63.5 | ||||
| 2009-11-01T00:00 | 14114 | 143 | -63.7 | ||||
| 2009-11-01T00:00 | 14124 | 142 | -63.7 | 318 | 22 | ||
| 2009-11-01T00:00 | 14128 | 142 | -63.6 | ||||
| 2009-11-01T00:00 | 14133 | 142 | -63.7 | ||||
| 2009-11-01T00:00 | 14154 | 142 | -63.7 | ||||
| 2009-11-01T00:00 | 14166 | 141 | -63.6 | ||||
| 2009-11-01T00:00 | 14169 | 141 | -63.5 | ||||
| 2009-11-01T00:00 | 14191 | 141 | -63.6 | ||||
| 2009-11-01T00:00 | 14207 | 140 | -63.5 | ||||
| 2009-11-01T00:00 | 14212 | 140 | -63.5 | ||||
| 2009-11-01T00:00 | 14235 | 140 | -63.8 | ||||
| 2009-11-01T00:00 | 14246 | 140 | -63.8 | ||||
| 2009-11-01T00:00 | 14250 | 140 | -63.8 | ||||
| 2009-11-01T00:00 | 14270 | 139 | -64.0 | ||||
| 2009-11-01T00:00 | 14285 | 139 | -63.9 | ||||
| 2009-11-01T00:00 | 14290 | 139 | -63.9 | ||||
| 2009-11-01T00:00 | 14313 | 138 | -64.0 | ||||
| 2009-11-01T00:00 | 14326 | 138 | -63.9 | ||||
| 2009-11-01T00:00 | 14330 | 138 | -63.9 | ||||
| 2009-11-01T00:00 | 14350 | 137 | -64.0 | ||||
| 2009-11-01T00:00 | 14358 | 137 | -63.9 | ||||
| 2009-11-01T00:00 | 14366 | 137 | -63.8 | ||||
| 2009-11-01T00:00 | 14381 | 137 | -64.0 | 316 | 24 | ||
| 2009-11-01T00:00 | 14385 | 136 | -64.0 | ||||
| 2009-11-01T00:00 | 14393 | 136 | -63.9 | ||||
| 2009-11-01T00:00 | 14401 | 136 | -63.9 | ||||
| 2009-11-01T00:00 | 14419 | 136 | -63.9 | ||||
| 2009-11-01T00:00 | 14426 | 136 | -63.9 | ||||
| 2009-11-01T00:00 | 14433 | 135 | -63.9 | ||||
| 2009-11-01T00:00 | 14454 | 135 | -64.1 | ||||
| 2009-11-01T00:00 | 14464 | 135 | -64.1 | ||||
| 2009-11-01T00:00 | 14470 | 135 | -64.2 | ||||
| 2009-11-01T00:00 | 14494 | 134 | -64.4 | ||||
| 2009-11-01T00:00 | 14506 | 134 | -64.4 | ||||
| 2009-11-01T00:00 | 14511 | 134 | -64.3 | ||||
| 2009-11-01T00:00 | 14532 | 133 | -64.3 | ||||
| 2009-11-01T00:00 | 14545 | 133 | -64.2 | ||||
| 2009-11-01T00:00 | 14549 | 133 | -64.1 | ||||
| 2009-11-01T00:00 | 14571 | 132 | -63.5 | ||||
| 2009-11-01T00:00 | 14584 | 132 | -63.3 | ||||
| 2009-11-01T00:00 | 14589 | 132 | -63.2 | ||||
| 2009-11-01T00:00 | 14608 | 132 | -63.1 | ||||
| 2009-11-01T00:00 | 14616 | 131 | -63.0 | ||||
| 2009-11-01T00:00 | 14619 | 131 | -63.0 | ||||
| 2009-11-01T00:00 | 14626 | 131 | -63.0 | 323 | 25 | ||
| 2009-11-01T00:00 | 14636 | 131 | -63.0 | ||||
| 2009-11-01T00:00 | 14646 | 131 | -63.0 | ||||
| 2009-11-01T00:00 | 14655 | 131 | -63.0 | ||||
| 2009-11-01T00:00 | 14677 | 130 | -63.2 | ||||
| 2009-11-01T00:00 | 14686 | 130 | -63.0 | ||||
| 2009-11-01T00:00 | 14695 | 130 | -62.9 | ||||
| 2009-11-01T00:00 | 14719 | 129 | -62.7 | ||||
| 2009-11-01T00:00 | 14730 | 129 | -62.2 | ||||
| 2009-11-01T00:00 | 14735 | 129 | -62.1 | ||||
| 2009-11-01T00:00 | 14759 | 128 | -62.3 | ||||
| 2009-11-01T00:00 | 14771 | 128 | -62.1 | ||||
| 2009-11-01T00:00 | 14776 | 128 | -62.1 | ||||
| 2009-11-01T00:00 | 14800 | 128 | -62.0 | ||||
| 2009-11-01T00:00 | 14817 | 127 | -62.0 | ||||
| 2009-11-01T00:00 | 14823 | 127 | -62.0 | ||||
| 2009-11-01T00:00 | 14849 | 127 | -62.1 | ||||
| 2009-11-01T00:00 | 14861 | 126 | -62.0 | ||||
| 2009-11-01T00:00 | 14865 | 126 | -62.0 | ||||
| 2009-11-01T00:00 | 14887 | 126 | -62.2 | ||||
| 2009-11-01T00:00 | 14897 | 126 | -61.9 | ||||
| 2009-11-01T00:00 | 14907 | 125 | -61.9 | 334 | 23 | ||
| 2009-11-01T00:00 | 14932 | 125 | -61.9 | ||||
| 2009-11-01T00:00 | 14942 | 125 | -61.7 | ||||
| 2009-11-01T00:00 | 14947 | 125 | -61.6 | ||||
| 2009-11-01T00:00 | 14970 | 124 | -61.7 | ||||
| 2009-11-01T00:00 | 14982 | 124 | -61.7 | ||||
| 2009-11-01T00:00 | 14985 | 124 | -61.7 | ||||
| 2009-11-01T00:00 | 15006 | 123 | -61.7 | ||||
| 2009-11-01T00:00 | 15021 | 123 | -61.5 | ||||
| 2009-11-01T00:00 | 15025 | 123 | -61.5 | ||||
| 2009-11-01T00:00 | 15047 | 123 | -61.7 | ||||
| 2009-11-01T00:00 | 15059 | 122 | -61.6 | ||||
| 2009-11-01T00:00 | 15063 | 122 | -61.7 | ||||
| 2009-11-01T00:00 | 15084 | 122 | -61.8 | ||||
| 2009-11-01T00:00 | 15092 | 122 | -61.8 | ||||
| 2009-11-01T00:00 | 15100 | 122 | -61.8 | ||||
| 2009-11-01T00:00 | 15120 | 121 | -62.0 | ||||
| 2009-11-01T00:00 | 15128 | 121 | -62.0 | ||||
| 2009-11-01T00:00 | 15132 | 121 | -62.0 | ||||
| 2009-11-01T00:00 | 15151 | 121 | -62.3 | ||||
| 2009-11-01T00:00 | 15164 | 120 | -62.3 | 336 | 20 | ||
| 2009-11-01T00:00 | 15168 | 120 | -62.3 | ||||
| 2009-11-01T00:00 | 15190 | 120 | -62.5 | ||||
| 2009-11-01T00:00 | 15204 | 119 | -62.5 | ||||
| 2009-11-01T00:00 | 15209 | 119 | -62.5 | ||||
| 2009-11-01T00:00 | 15229 | 119 | -62.8 | ||||
| 2009-11-01T00:00 | 15235 | 119 | -62.7 | ||||
| 2009-11-01T00:00 | 15242 | 119 | -62.8 | ||||
| 2009-11-01T00:00 | 15263 | 118 | -62.6 | ||||
| 2009-11-01T00:00 | 15274 | 118 | -62.4 | ||||
| 2009-11-01T00:00 | 15279 | 118 | -62.4 | ||||
| 2009-11-01T00:00 | 15304 | 118 | -62.4 | ||||
| 2009-11-01T00:00 | 15315 | 117 | -62.3 | ||||
| 2009-11-01T00:00 | 15318 | 117 | -62.3 | ||||
| 2009-11-01T00:00 | 15337 | 117 | -62.5 | ||||
| 2009-11-01T00:00 | 15350 | 117 | -62.4 | ||||
| 2009-11-01T00:00 | 15354 | 117 | -62.2 | ||||
| 2009-11-01T00:00 | 15375 | 116 | -62.2 | ||||
| 2009-11-01T00:00 | 15385 | 116 | -62.1 | ||||
| 2009-11-01T00:00 | 15394 | 116 | -62.1 | ||||
| 2009-11-01T00:00 | 15415 | 115 | -62.2 | ||||
| 2009-11-01T00:00 | 15418 | 115 | -62.2 | 327 | 20 | ||
| 2009-11-01T00:00 | 15422 | 115 | -62.2 | ||||
| 2009-11-01T00:00 | 15428 | 115 | -62.2 | ||||
| 2009-11-01T00:00 | 15450 | 115 | -62.3 | ||||
| 2009-11-01T00:00 | 15462 | 115 | -62.2 | ||||
| 2009-11-01T00:00 | 15467 | 114 | -62.2 | ||||
| 2009-11-01T00:00 | 15493 | 114 | -62.3 | ||||
| 2009-11-01T00:00 | 15505 | 114 | -62.2 | ||||
| 2009-11-01T00:00 | 15509 | 114 | -62.2 | ||||
| 2009-11-01T00:00 | 15528 | 113 | -62.2 | ||||
| 2009-11-01T00:00 | 15536 | 113 | -62.0 | ||||
| 2009-11-01T00:00 | 15543 | 113 | -61.9 | ||||
| 2009-11-01T00:00 | 15565 | 113 | -61.7 | ||||
| 2009-11-01T00:00 | 15575 | 113 | -61.5 | ||||
| 2009-11-01T00:00 | 15580 | 112 | -61.5 | ||||
| 2009-11-01T00:00 | 15604 | 112 | -61.5 | ||||
| 2009-11-01T00:00 | 15618 | 112 | -61.4 | ||||
| 2009-11-01T00:00 | 15622 | 112 | -61.4 | ||||
| 2009-11-01T00:00 | 15644 | 111 | -61.7 | ||||
| 2009-11-01T00:00 | 15656 | 111 | -61.6 | ||||
| 2009-11-01T00:00 | 15660 | 111 | -61.6 | ||||
| 2009-11-01T00:00 | 15681 | 111 | -61.6 | 329 | 19 | ||
| 2009-11-01T00:00 | 15689 | 110 | -61.6 | ||||
| 2009-11-01T00:00 | 15698 | 110 | -61.6 | ||||
| 2009-11-01T00:00 | 15720 | 110 | -61.9 | ||||
| 2009-11-01T00:00 | 15728 | 110 | -61.9 | ||||
| 2009-11-01T00:00 | 15733 | 110 | -62.0 | ||||
| 2009-11-01T00:00 | 15754 | 109 | -62.2 | ||||
| 2009-11-01T00:00 | 15766 | 109 | -62.3 | ||||
| 2009-11-01T00:00 | 15770 | 109 | -62.2 | ||||
| 2009-11-01T00:00 | 15793 | 109 | -62.4 | ||||
| 2009-11-01T00:00 | 15807 | 108 | -62.3 | ||||
| 2009-11-01T00:00 | 15812 | 108 | -62.2 | ||||
| 2009-11-01T00:00 | 15834 | 108 | -61.9 | ||||
| 2009-11-01T00:00 | 15841 | 108 | -61.8 | ||||
| 2009-11-01T00:00 | 15845 | 108 | -61.8 | ||||
| 2009-11-01T00:00 | 15864 | 107 | -61.9 | ||||
| 2009-11-01T00:00 | 15876 | 107 | -61.8 | ||||
| 2009-11-01T00:00 | 15881 | 107 | -61.8 | ||||
| 2009-11-01T00:00 | 15904 | 107 | -62.0 | ||||
| 2009-11-01T00:00 | 15920 | 106 | -61.9 | ||||
| 2009-11-01T00:00 | 15925 | 106 | -61.9 | ||||
| 2009-11-01T00:00 | 15945 | 106 | -61.9 | 338 | 15 | ||
| 2009-11-01T00:00 | 15950 | 106 | -61.8 | ||||
| 2009-11-01T00:00 | 15958 | 106 | -61.8 | ||||
| 2009-11-01T00:00 | 15967 | 106 | -61.7 | ||||
| 2009-11-01T00:00 | 15993 | 105 | -61.8 | ||||
| 2009-11-01T00:00 | 16005 | 105 | -61.8 | ||||
| 2009-11-01T00:00 | 16011 | 105 | -61.8 | ||||
| 2009-11-01T00:00 | 16038 | 104 | -62.1 | ||||
| 2009-11-01T00:00 | 16048 | 104 | -62.0 | ||||
| 2009-11-01T00:00 | 16052 | 104 | -62.0 | ||||
| 2009-11-01T00:00 | 16071 | 104 | -62.0 | ||||
| 2009-11-01T00:00 | 16079 | 104 | -61.9 | ||||
| 2009-11-01T00:00 | 16087 | 104 | -61.9 | ||||
| 2009-11-01T00:00 | 16109 | 103 | -62.1 | ||||
| 2009-11-01T00:00 | 16119 | 103 | -62.0 | ||||
| 2009-11-01T00:00 | 16124 | 103 | -61.9 | ||||
| 2009-11-01T00:00 | 16146 | 103 | -62.2 | ||||
| 2009-11-01T00:00 | 16157 | 102 | -62.1 | ||||
| 2009-11-01T00:00 | 16161 | 102 | -62.1 | ||||
| 2009-11-01T00:00 | 16183 | 102 | -62.2 | ||||
| 2009-11-01T00:00 | 16194 | 102 | -62.2 | ||||
| 2009-11-01T00:00 | 16206 | 102 | -62.2 | ||||
| 2009-11-01T00:00 | 16221 | 101 | -62.4 | 335 | 12 | ||
| 2009-11-01T00:00 | 16231 | 101 | -62.5 | ||||
| 2009-11-01T00:00 | 16240 | 101 | -62.5 | ||||
| 2009-11-01T00:00 | 16244 | 101 | -62.5 | ||||
| 2009-11-01T00:00 | 16266 | 101 | -62.8 | ||||
| 2009-11-01T00:00 | 16281 | 100 | -62.8 | ||||
| 2009-11-01T00:00 | 16286 | 100 | -62.9 | ||||
| 2009-11-01T00:00 | 16304 | 100 | -62.9 | ||||
| 2009-11-01T00:00 | 16308 | 100 | -62.9 | ||||
| 2009-11-01T00:00 | 16319 | 100 | -62.8 | ||||
| 2009-11-01T00:00 | 16322 | 100 | -62.8 | ||||
| 2009-11-01T00:00 | 16343 | 99 | -62.8 | ||||
| 2009-11-01T00:00 | 16352 | 99 | -62.6 | ||||
| 2009-11-01T00:00 | 16357 | 99 | -62.7 | ||||
| 2009-11-01T00:00 | 16381 | 99 | -62.8 | ||||
| 2009-11-01T00:00 | 16396 | 99 | -62.8 | ||||
| 2009-11-01T00:00 | 16401 | 98 | -62.9 | ||||
| 2009-11-01T00:00 | 16422 | 98 | -63.1 | ||||
| 2009-11-01T00:00 | 16432 | 98 | -63.0 | ||||
| 2009-11-01T00:00 | 16435 | 98 | -63.0 | ||||
| 2009-11-01T00:00 | 16453 | 98 | -63.2 | ||||
| 2009-11-01T00:00 | 16462 | 97 | -63.0 | ||||
| 2009-11-01T00:00 | 16471 | 97 | -63.0 | ||||
| 2009-11-01T00:00 | 16480 | 97 | -63.1 | 324 | 13 | ||
| 2009-11-01T00:00 | 16494 | 97 | -63.1 | ||||
| 2009-11-01T00:00 | 16503 | 97 | -63.0 | ||||
| 2009-11-01T00:00 | 16508 | 97 | -63.1 | ||||
| 2009-11-01T00:00 | 16531 | 96 | -63.1 | ||||
| 2009-11-01T00:00 | 16544 | 96 | -63.1 | ||||
| 2009-11-01T00:00 | 16548 | 96 | -63.0 | ||||
| 2009-11-01T00:00 | 16569 | 96 | -63.1 | ||||
| 2009-11-01T00:00 | 16576 | 96 | -63.0 | ||||
| 2009-11-01T00:00 | 16583 | 96 | -62.9 | ||||
| 2009-11-01T00:00 | 16603 | 95 | -63.0 | ||||
| 2009-11-01T00:00 | 16613 | 95 | -62.9 | ||||
| 2009-11-01T00:00 | 16617 | 95 | -62.8 | ||||
| 2009-11-01T00:00 | 16639 | 95 | -62.9 | ||||
| 2009-11-01T00:00 | 16651 | 95 | -62.8 | ||||
| 2009-11-01T00:00 | 16655 | 94 | -62.8 | ||||
| 2009-11-01T00:00 | 16674 | 94 | -62.7 | ||||
| 2009-11-01T00:00 | 16682 | 94 | -62.4 | ||||
| 2009-11-01T00:00 | 16686 | 94 | -62.4 | ||||
| 2009-11-01T00:00 | 16706 | 94 | -62.6 | ||||
| 2009-11-01T00:00 | 16718 | 93 | -62.4 | ||||
| 2009-11-01T00:00 | 16722 | 93 | -62.4 | ||||
| 2009-11-01T00:00 | 16731 | 93 | -62.4 | 318 | 13 | ||
| 2009-11-01T00:00 | 16744 | 93 | -62.5 | ||||
| 2009-11-01T00:00 | 16760 | 93 | -62.5 | ||||
| 2009-11-01T00:00 | 16765 | 93 | -62.5 | ||||
| 2009-11-01T00:00 | 16791 | 92 | -62.6 | ||||
| 2009-11-01T00:00 | 16802 | 92 | -62.6 | ||||
| 2009-11-01T00:00 | 16807 | 92 | -62.7 | ||||
| 2009-11-01T00:00 | 16831 | 92 | -62.9 | ||||
| 2009-11-01T00:00 | 16842 | 92 | -62.8 | ||||
| 2009-11-01T00:00 | 16846 | 92 | -62.9 | ||||
| 2009-11-01T00:00 | 16865 | 91 | -63.2 | ||||
| 2009-11-01T00:00 | 16874 | 91 | -63.1 | ||||
| 2009-11-01T00:00 | 16882 | 91 | -63.1 | ||||
| 2009-11-01T00:00 | 16903 | 91 | -63.2 | ||||
| 2009-11-01T00:00 | 16911 | 91 | -63.2 | ||||
| 2009-11-01T00:00 | 16916 | 91 | -63.3 | ||||
| 2009-11-01T00:00 | 16936 | 90 | -63.5 | ||||
| 2009-11-01T00:00 | 16946 | 90 | -63.5 | ||||
| 2009-11-01T00:00 | 16950 | 90 | -63.5 | ||||
| 2009-11-01T00:00 | 16970 | 90 | -63.7 | ||||
| 2009-11-01T00:00 | 16980 | 90 | -63.7 | ||||
| 2009-11-01T00:00 | 16990 | 89 | -63.7 | ||||
| 2009-11-01T00:00 | 16995 | 89 | -63.7 | 317 | 14 | ||
| 2009-11-01T00:00 | 17015 | 89 | -63.8 | ||||
| 2009-11-01T00:00 | 17026 | 89 | -63.6 | ||||
| 2009-11-01T00:00 | 17031 | 89 | -63.4 | ||||
| 2009-11-01T00:00 | 17056 | 88 | -63.5 | ||||
| 2009-11-01T00:00 | 17068 | 88 | -63.4 | ||||
| 2009-11-01T00:00 | 17072 | 88 | -63.5 | ||||
| 2009-11-01T00:00 | 17093 | 88 | -63.5 | ||||
| 2009-11-01T00:00 | 17102 | 88 | -63.2 | ||||
| 2009-11-01T00:00 | 17111 | 88 | -63.1 | ||||
| 2009-11-01T00:00 | 17134 | 87 | -63.0 | ||||
| 2009-11-01T00:00 | 17143 | 87 | -62.8 | ||||
| 2009-11-01T00:00 | 17147 | 87 | -62.7 | ||||
| 2009-11-01T00:00 | 17169 | 87 | -62.7 | ||||
| 2009-11-01T00:00 | 17181 | 87 | -62.6 | ||||
| 2009-11-01T00:00 | 17185 | 87 | -62.6 | ||||
| 2009-11-01T00:00 | 17209 | 86 | -62.8 | ||||
| 2009-11-01T00:00 | 17220 | 86 | -62.7 | ||||
| 2009-11-01T00:00 | 17226 | 86 | -62.5 | ||||
| 2009-11-01T00:00 | 17251 | 86 | -62.5 | ||||
| 2009-11-01T00:00 | 17264 | 86 | -62.4 | ||||
| 2009-11-01T00:00 | 17268 | 86 | -62.3 | ||||
| 2009-11-01T00:00 | 17272 | 85 | -62.3 | 320 | 15 | ||
| 2009-11-01T00:00 | 17289 | 85 | -62.4 | ||||
| 2009-11-01T00:00 | 17297 | 85 | -62.3 | ||||
| 2009-11-01T00:00 | 17305 | 85 | -62.3 | ||||
| 2009-11-01T00:00 | 17329 | 85 | -62.4 | ||||
| 2009-11-01T00:00 | 17340 | 84 | -62.3 | ||||
| 2009-11-01T00:00 | 17345 | 84 | -62.2 | ||||
| 2009-11-01T00:00 | 17371 | 84 | -62.1 | ||||
| 2009-11-01T00:00 | 17385 | 84 | -61.9 | ||||
| 2009-11-01T00:00 | 17389 | 84 | -61.9 | ||||
| 2009-11-01T00:00 | 17410 | 84 | -62.0 | ||||
| 2009-11-01T00:00 | 17418 | 83 | -61.8 | ||||
| 2009-11-01T00:00 | 17422 | 83 | -61.8 | ||||
| 2009-11-01T00:00 | 17444 | 83 | -61.9 | ||||
| 2009-11-01T00:00 | 17458 | 83 | -61.8 | ||||
| 2009-11-01T00:00 | 17463 | 83 | -61.8 | ||||
| 2009-11-01T00:00 | 17487 | 83 | -61.7 | ||||
| 2009-11-01T00:00 | 17496 | 82 | -61.6 | ||||
| 2009-11-01T00:00 | 17500 | 82 | -61.5 | ||||
| 2009-11-01T00:00 | 17521 | 82 | -61.6 | ||||
| 2009-11-01T00:00 | 17533 | 82 | -61.5 | ||||
| 2009-11-01T00:00 | 17537 | 82 | -61.5 | ||||
| 2009-11-01T00:00 | 17541 | 82 | -61.5 | 321 | 13 | ||
| 2009-11-01T00:00 | 17557 | 82 | -61.3 | ||||
| 2009-11-01T00:00 | 17567 | 81 | -61.1 | ||||
| 2009-11-01T00:00 | 17576 | 81 | -61.1 | ||||
| 2009-11-01T00:00 | 17601 | 81 | -61.1 | ||||
| 2009-11-01T00:00 | 17611 | 81 | -60.9 | ||||
| 2009-11-01T00:00 | 17616 | 81 | -61.0 | ||||
| 2009-11-01T00:00 | 17639 | 81 | -60.7 | ||||
| 2009-11-01T00:00 | 17647 | 80 | -60.7 | ||||
| 2009-11-01T00:00 | 17655 | 80 | -60.7 | ||||
| 2009-11-01T00:00 | 17678 | 80 | -60.9 | ||||
| 2009-11-01T00:00 | 17689 | 80 | -61.0 | ||||
| 2009-11-01T00:00 | 17694 | 80 | -61.0 | ||||
| 2009-11-01T00:00 | 17720 | 79 | -61.3 | ||||
| 2009-11-01T00:00 | 17730 | 79 | -61.3 | ||||
| 2009-11-01T00:00 | 17739 | 79 | -61.3 | ||||
| 2009-11-01T00:00 | 17762 | 79 | -61.6 | ||||
| 2009-11-01T00:00 | 17771 | 79 | -61.5 | ||||
| 2009-11-01T00:00 | 17776 | 79 | -61.6 | ||||
| 2009-11-01T00:00 | 17797 | 78 | -61.8 | ||||
| 2009-11-01T00:00 | 17804 | 78 | -61.7 | ||||
| 2009-11-01T00:00 | 17812 | 78 | -61.5 | ||||
| 2009-11-01T00:00 | 17816 | 78 | -61.4 | 329 | 11 | ||
| 2009-11-01T00:00 | 17834 | 78 | -61.1 | ||||
| 2009-11-01T00:00 | 17845 | 78 | -61.0 | ||||
| 2009-11-01T00:00 | 17851 | 78 | -61.0 | ||||
| 2009-11-01T00:00 | 17876 | 78 | -61.1 | ||||
| 2009-11-01T00:00 | 17883 | 77 | -61.0 | ||||
| 2009-11-01T00:00 | 17891 | 77 | -61.0 | ||||
| 2009-11-01T00:00 | 17913 | 77 | -60.9 | ||||
| 2009-11-01T00:00 | 17923 | 77 | -60.8 | ||||
| 2009-11-01T00:00 | 17928 | 77 | -60.8 | ||||
| 2009-11-01T00:00 | 17951 | 77 | -60.8 | ||||
| 2009-11-01T00:00 | 17959 | 76 | -60.8 | ||||
| 2009-11-01T00:00 | 17966 | 76 | -60.8 | ||||
| 2009-11-01T00:00 | 17989 | 76 | -60.9 | ||||
| 2009-11-01T00:00 | 18001 | 76 | -60.8 | ||||
| 2009-11-01T00:00 | 18006 | 76 | -60.8 | ||||
| 2009-11-01T00:00 | 18031 | 76 | -60.9 | ||||
| 2009-11-01T00:00 | 18038 | 76 | -60.8 | ||||
| 2009-11-01T00:00 | 18045 | 75 | -60.8 | ||||
| 2009-11-01T00:00 | 18065 | 75 | -60.9 | ||||
| 2009-11-01T00:00 | 18074 | 75 | -60.9 | ||||
| 2009-11-01T00:00 | 18079 | 75 | -60.9 | ||||
| 2009-11-01T00:00 | 18087 | 75 | -61.0 | 345 | 10 | ||
| 2009-11-01T00:00 | 18101 | 75 | -61.0 | ||||
| 2009-11-01T00:00 | 18109 | 75 | -61.1 | ||||
| 2009-11-01T00:00 | 18117 | 75 | -61.1 | ||||
| 2009-11-01T00:00 | 18140 | 74 | -61.2 | ||||
| 2009-11-01T00:00 | 18151 | 74 | -61.2 | ||||
| 2009-11-01T00:00 | 18156 | 74 | -61.2 | ||||
| 2009-11-01T00:00 | 18181 | 74 | -61.5 | ||||
| 2009-11-01T00:00 | 18190 | 74 | -61.5 | ||||
| 2009-11-01T00:00 | 18199 | 74 | -61.5 | ||||
| 2009-11-01T00:00 | 18221 | 73 | -61.8 | ||||
| 2009-11-01T00:00 | 18231 | 73 | -61.8 | ||||
| 2009-11-01T00:00 | 18235 | 73 | -61.8 | ||||
| 2009-11-01T00:00 | 18256 | 73 | -62.0 | ||||
| 2009-11-01T00:00 | 18263 | 73 | -62.0 | ||||
| 2009-11-01T00:00 | 18270 | 73 | -62.0 | ||||
| 2009-11-01T00:00 | 18291 | 72 | -61.9 | ||||
| 2009-11-01T00:00 | 18301 | 72 | -61.7 | ||||
| 2009-11-01T00:00 | 18306 | 72 | -61.7 | ||||
| 2009-11-01T00:00 | 18332 | 72 | -61.5 | ||||
| 2009-11-01T00:00 | 18343 | 72 | -61.0 | ||||
| 2009-11-01T00:00 | 18354 | 72 | -60.9 | ||||
| 2009-11-01T00:00 | 18363 | 72 | -61.0 | 341 | 8 | ||
| 2009-11-01T00:00 | 18377 | 71 | -61.0 | ||||
| 2009-11-01T00:00 | 18383 | 71 | -61.0 | ||||
| 2009-11-01T00:00 | 18387 | 71 | -61.0 | ||||
| 2009-11-01T00:00 | 18408 | 71 | -61.2 | ||||
| 2009-11-01T00:00 | 18418 | 71 | -61.2 | ||||
| 2009-11-01T00:00 | 18424 | 71 | -61.2 | ||||
| 2009-11-01T00:00 | 18449 | 71 | -61.5 | ||||
| 2009-11-01T00:00 | 18463 | 71 | -61.5 | ||||
| 2009-11-01T00:00 | 18467 | 70 | -61.5 | ||||
| 2009-11-01T00:00 | 18490 | 70 | -61.7 | ||||
| 2009-11-01T00:00 | 18499 | 70 | -61.6 | ||||
| 2009-11-01T00:00 | 18503 | 70 | -61.6 | ||||
| 2009-11-01T00:00 | 18508 | 70 | -61.7 | ||||
| 2009-11-01T00:00 | 18526 | 70 | -61.8 | ||||
| 2009-11-01T00:00 | 18541 | 70 | -61.8 | ||||
| 2009-11-01T00:00 | 18545 | 70 | -61.8 | ||||
| 2009-11-01T00:00 | 18570 | 69 | -61.9 | ||||
| 2009-11-01T00:00 | 18580 | 69 | -61.7 | ||||
| 2009-11-01T00:00 | 18584 | 69 | -61.7 | ||||
| 2009-11-01T00:00 | 18608 | 69 | -61.8 | ||||
| 2009-11-01T00:00 | 18622 | 69 | -61.5 | ||||
| 2009-11-01T00:00 | 18626 | 69 | -61.4 | ||||
| 2009-11-01T00:00 | 18639 | 69 | -61.2 | 318 | 8 | ||
| 2009-11-01T00:00 | 18648 | 68 | -61.1 | ||||
| 2009-11-01T00:00 | 18655 | 68 | -61.0 | ||||
| 2009-11-01T00:00 | 18659 | 68 | -60.8 | ||||
| 2009-11-01T00:00 | 18679 | 68 | -61.1 | ||||
| 2009-11-01T00:00 | 18687 | 68 | -61.1 | ||||
| 2009-11-01T00:00 | 18695 | 68 | -61.1 | ||||
| 2009-11-01T00:00 | 18717 | 68 | -61.1 | ||||
| 2009-11-01T00:00 | 18727 | 68 | -61.0 | ||||
| 2009-11-01T00:00 | 18732 | 68 | -60.9 | ||||
| 2009-11-01T00:00 | 18756 | 67 | -60.8 | ||||
| 2009-11-01T00:00 | 18764 | 67 | -60.5 | ||||
| 2009-11-01T00:00 | 18772 | 67 | -60.5 | ||||
| 2009-11-01T00:00 | 18788 | 67 | -60.2 | ||||
| 2009-11-01T00:00 | 18800 | 67 | -60.0 | ||||
| 2009-11-01T00:00 | 18804 | 67 | -59.8 | ||||
| 2009-11-01T00:00 | 18824 | 67 | -59.8 | ||||
| 2009-11-01T00:00 | 18832 | 66 | -59.7 | ||||
| 2009-11-01T00:00 | 18837 | 66 | -59.7 | ||||
| 2009-11-01T00:00 | 18860 | 66 | -59.7 | ||||
| 2009-11-01T00:00 | 18876 | 66 | -59.6 | ||||
| 2009-11-01T00:00 | 18881 | 66 | -59.6 | ||||
| 2009-11-01T00:00 | 18900 | 66 | -59.4 | 302 | 8 | ||
| 2009-11-01T00:00 | 18905 | 66 | -59.4 | ||||
| 2009-11-01T00:00 | 18913 | 66 | -59.3 | ||||
| 2009-11-01T00:00 | 18916 | 66 | -59.3 | ||||
| 2009-11-01T00:00 | 18937 | 65 | -59.3 | ||||
| 2009-11-01T00:00 | 18945 | 65 | -59.2 | ||||
| 2009-11-01T00:00 | 18949 | 65 | -59.2 | ||||
| 2009-11-01T00:00 | 18970 | 65 | -59.3 | ||||
| 2009-11-01T00:00 | 18982 | 65 | -59.2 | ||||
| 2009-11-01T00:00 | 18986 | 65 | -59.2 | ||||
| 2009-11-01T00:00 | 19008 | 65 | -59.0 | ||||
| 2009-11-01T00:00 | 19017 | 64 | -58.9 | ||||
| 2009-11-01T00:00 | 19022 | 64 | -59.0 | ||||
| 2009-11-01T00:00 | 19043 | 64 | -59.0 | ||||
| 2009-11-01T00:00 | 19049 | 64 | -58.8 | ||||
| 2009-11-01T00:00 | 19055 | 64 | -58.8 | ||||
| 2009-11-01T00:00 | 19071 | 64 | -58.9 | ||||
| 2009-11-01T00:00 | 19088 | 64 | -58.9 | ||||
| 2009-11-01T00:00 | 19094 | 64 | -58.9 | ||||
| 2009-11-01T00:00 | 19120 | 63 | -59.0 | ||||
| 2009-11-01T00:00 | 19128 | 63 | -58.9 | ||||
| 2009-11-01T00:00 | 19132 | 63 | -58.9 | ||||
| 2009-11-01T00:00 | 19150 | 63 | -59.1 | ||||
| 2009-11-01T00:00 | 19153 | 63 | -58.9 | 293 | 7 | ||
| 2009-11-01T00:00 | 19156 | 63 | -58.8 | ||||
| 2009-11-01T00:00 | 19162 | 63 | -58.8 | ||||
| 2009-11-01T00:00 | 19176 | 63 | -59.0 | ||||
| 2009-11-01T00:00 | 19190 | 63 | -58.9 | ||||
| 2009-11-01T00:00 | 19195 | 63 | -59.0 | ||||
| 2009-11-01T00:00 | 19217 | 62 | -59.0 | ||||
| 2009-11-01T00:00 | 19224 | 62 | -58.9 | ||||
| 2009-11-01T00:00 | 19227 | 62 | -58.9 | ||||
| 2009-11-01T00:00 | 19248 | 62 | -59.0 | ||||
| 2009-11-01T00:00 | 19259 | 62 | -59.0 | ||||
| 2009-11-01T00:00 | 19270 | 62 | -59.0 | ||||
| 2009-11-01T00:00 | 19290 | 62 | -59.2 | ||||
| 2009-11-01T00:00 | 19302 | 62 | -59.2 | ||||
| 2009-11-01T00:00 | 19306 | 62 | -59.2 | ||||
| 2009-11-01T00:00 | 19330 | 61 | -59.3 | ||||
| 2009-11-01T00:00 | 19342 | 61 | -59.2 | ||||
| 2009-11-01T00:00 | 19347 | 61 | -59.2 | ||||
| 2009-11-01T00:00 | 19373 | 61 | -59.1 | ||||
| 2009-11-01T00:00 | 19381 | 61 | -59.1 | ||||
| 2009-11-01T00:00 | 19389 | 61 | -59.1 | ||||
| 2009-11-01T00:00 | 19406 | 61 | -59.1 | ||||
| 2009-11-01T00:00 | 19420 | 60 | -59.1 | 292 | 7 | ||
| 2009-11-01T00:00 | 19425 | 60 | -59.1 | ||||
| 2009-11-01T00:00 | 19450 | 60 | -59.3 | ||||
| 2009-11-01T00:00 | 19462 | 60 | -59.3 | ||||
| 2009-11-01T00:00 | 19468 | 60 | -59.3 | ||||
| 2009-11-01T00:00 | 19500 | 60 | -59.5 | ||||
| 2009-11-01T00:00 | 19516 | 60 | -59.4 | ||||
| 2009-11-01T00:00 | 19532 | 59 | -59.5 | ||||
| 2009-11-01T00:00 | 19557 | 59 | -59.5 | ||||
| 2009-11-01T00:00 | 19564 | 59 | -59.4 | ||||
| 2009-11-01T00:00 | 19566 | 59 | -59.5 | ||||
| 2009-11-01T00:00 | 19583 | 59 | -59.4 | ||||
| 2009-11-01T00:00 | 19593 | 59 | -59.1 | ||||
| 2009-11-01T00:00 | 19599 | 59 | -59.1 | ||||
| 2009-11-01T00:00 | 19623 | 59 | -59.1 | ||||
| 2009-11-01T00:00 | 19632 | 58 | -58.8 | ||||
| 2009-11-01T00:00 | 19636 | 58 | -58.8 | ||||
| 2009-11-01T00:00 | 19655 | 58 | -58.9 | ||||
| 2009-11-01T00:00 | 19663 | 58 | -58.9 | ||||
| 2009-11-01T00:00 | 19666 | 58 | -58.9 | ||||
| 2009-11-01T00:00 | 19689 | 58 | -59.0 | ||||
| 2009-11-01T00:00 | 19702 | 58 | -59.0 | ||||
| 2009-11-01T00:00 | 19709 | 58 | -59.0 | ||||
| 2009-11-01T00:00 | 19715 | 58 | -59.0 | 306 | 7 | ||
| 2009-11-01T00:00 | 19738 | 57 | -59.1 | ||||
| 2009-11-01T00:00 | 19747 | 57 | -59.0 | ||||
| 2009-11-01T00:00 | 19751 | 57 | -58.9 | ||||
| 2009-11-01T00:00 | 19773 | 57 | -59.0 | ||||
| 2009-11-01T00:00 | 19787 | 57 | -59.0 | ||||
| 2009-11-01T00:00 | 19791 | 57 | -59.0 | ||||
| 2009-11-01T00:00 | 19815 | 57 | -58.8 | ||||
| 2009-11-01T00:00 | 19825 | 57 | -58.7 | ||||
| 2009-11-01T00:00 | 19830 | 57 | -58.7 | ||||
| 2009-11-01T00:00 | 19853 | 56 | -58.9 | ||||
| 2009-11-01T00:00 | 19862 | 56 | -58.9 | ||||
| 2009-11-01T00:00 | 19866 | 56 | -58.9 | ||||
| 2009-11-01T00:00 | 19889 | 56 | -59.1 | ||||
| 2009-11-01T00:00 | 19898 | 56 | -59.0 | ||||
| 2009-11-01T00:00 | 19907 | 56 | -59.0 | ||||
| 2009-11-01T00:00 | 19934 | 56 | -59.2 | ||||
| 2009-11-01T00:00 | 19947 | 56 | -59.1 | ||||
| 2009-11-01T00:00 | 19953 | 56 | -59.1 | ||||
| 2009-11-01T00:00 | 19979 | 55 | -59.2 | ||||
| 2009-11-01T00:00 | 19985 | 55 | -59.1 | ||||
| 2009-11-01T00:00 | 19988 | 55 | -59.1 | ||||
| 2009-11-01T00:00 | 20000 | 55 | -59.2 | 315 | 4 | ||
| 2009-11-01T00:00 | 20008 | 55 | -59.2 | ||||
| 2009-11-01T00:00 | 20018 | 55 | -59.1 | ||||
| 2009-11-01T00:00 | 20023 | 55 | -59.1 | ||||
| 2009-11-01T00:00 | 20047 | 55 | -59.4 | ||||
| 2009-11-01T00:00 | 20059 | 55 | -59.4 | ||||
| 2009-11-01T00:00 | 20063 | 55 | -59.4 | ||||
| 2009-11-01T00:00 | 20085 | 54 | -59.7 | ||||
| 2009-11-01T00:00 | 20094 | 54 | -59.7 | ||||
| 2009-11-01T00:00 | 20098 | 54 | -59.7 | ||||
| 2009-11-01T00:00 | 20122 | 54 | -59.8 | ||||
| 2009-11-01T00:00 | 20131 | 54 | -59.8 | ||||
| 2009-11-01T00:00 | 20136 | 54 | -59.9 | ||||
| 2009-11-01T00:00 | 20159 | 54 | -60.1 | ||||
| 2009-11-01T00:00 | 20166 | 54 | -60.1 | ||||
| 2009-11-01T00:00 | 20173 | 54 | -60.1 | ||||
| 2009-11-01T00:00 | 20189 | 54 | -60.2 | ||||
| 2009-11-01T00:00 | 20200 | 53 | -60.1 | ||||
| 2009-11-01T00:00 | 20204 | 53 | -60.1 | ||||
| 2009-11-01T00:00 | 20229 | 53 | -60.3 | ||||
| 2009-11-01T00:00 | 20241 | 53 | -60.2 | ||||
| 2009-11-01T00:00 | 20247 | 53 | -60.2 | ||||
| 2009-11-01T00:00 | 20274 | 53 | -60.3 | 288 | 5 | ||
| 2009-11-01T00:00 | 20283 | 53 | -60.2 | ||||
| 2009-11-01T00:00 | 20288 | 53 | -60.2 | ||||
| 2009-11-01T00:00 | 20310 | 52 | -60.1 | ||||
| 2009-11-01T00:00 | 20322 | 52 | -60.0 | ||||
| 2009-11-01T00:00 | 20326 | 52 | -60.0 | ||||
| 2009-11-01T00:00 | 20356 | 52 | -60.1 | ||||
| 2009-11-01T00:00 | 20372 | 52 | -60.0 | ||||
| 2009-11-01T00:00 | 20380 | 52 | -59.9 | ||||
| 2009-11-01T00:00 | 20406 | 52 | -60.0 | ||||
| 2009-11-01T00:00 | 20407 | 52 | -59.9 | ||||
| 2009-11-01T00:00 | 20415 | 52 | -59.7 | ||||
| 2009-11-01T00:00 | 20422 | 52 | -59.5 | ||||
| 2009-11-01T00:00 | 20425 | 52 | -59.4 | ||||
| 2009-11-01T00:00 | 20447 | 51 | -59.5 | ||||
| 2009-11-01T00:00 | 20464 | 51 | -59.3 | ||||
| 2009-11-01T00:00 | 20470 | 51 | -59.3 | ||||
| 2009-11-01T00:00 | 20492 | 51 | -59.2 | ||||
| 2009-11-01T00:00 | 20498 | 51 | -59.0 | ||||
| 2009-11-01T00:00 | 20501 | 51 | -59.0 | ||||
| 2009-11-01T00:00 | 20520 | 51 | -59.0 | ||||
| 2009-11-01T00:00 | 20531 | 51 | -58.8 | 285 | 5 | ||
| 2009-11-01T00:00 | 20537 | 51 | -58.8 | ||||
| 2009-11-01T00:00 | 20565 | 50 | -58.7 | ||||
| 2009-11-01T00:00 | 20576 | 50 | -58.7 | ||||
| 2009-11-01T00:00 | 20582 | 50 | -58.7 | ||||
| 2009-11-01T00:00 | 20606 | 50 | -58.9 | ||||
| 2009-11-01T00:00 | 20611 | 50 | -58.9 | ||||
| 2009-11-01T00:00 | 20618 | 50 | -58.8 | ||||
| 2009-11-01T00:00 | 20622 | 50 | -58.8 | ||||
| 2009-11-01T00:00 | 20646 | 50 | -59.0 | ||||
| 2009-11-01T00:00 | 20658 | 50 | -58.8 | ||||
| 2009-11-01T00:00 | 20665 | 50 | -58.9 | ||||
| 2009-11-01T00:00 | 20688 | 49 | -59.1 | ||||
| 2009-11-01T00:00 | 20694 | 49 | -59.0 | ||||
| 2009-11-01T00:00 | 20697 | 49 | -59.0 | ||||
| 2009-11-01T00:00 | 20714 | 49 | -59.3 | ||||
| 2009-11-01T00:00 | 20722 | 49 | -59.2 | ||||
| 2009-11-01T00:00 | 20727 | 49 | -59.3 | ||||
| 2009-11-01T00:00 | 20751 | 49 | -59.5 | ||||
| 2009-11-01T00:00 | 20763 | 49 | -59.5 | ||||
| 2009-11-01T00:00 | 20774 | 49 | -59.5 | ||||
| 2009-11-01T00:00 | 20794 | 49 | -59.7 | ||||
| 2009-11-01T00:00 | 20803 | 48 | -59.7 | ||||
| 2009-11-01T00:00 | 20806 | 48 | -59.7 | ||||
| 2009-11-01T00:00 | 20811 | 48 | -59.7 | 299 | 4 | ||
| 2009-11-01T00:00 | 20827 | 48 | -59.8 | ||||
| 2009-11-01T00:00 | 20839 | 48 | -59.8 | ||||
| 2009-11-01T00:00 | 20844 | 48 | -59.8 | ||||
| 2009-11-01T00:00 | 20872 | 48 | -59.9 | ||||
| 2009-11-01T00:00 | 20883 | 48 | -59.8 | ||||
| 2009-11-01T00:00 | 20888 | 48 | -59.9 | ||||
| 2009-11-01T00:00 | 20915 | 48 | -60.1 | ||||
| 2009-11-01T00:00 | 20925 | 48 | -60.1 | ||||
| 2009-11-01T00:00 | 20935 | 47 | -60.2 | ||||
| 2009-11-01T00:00 | 20955 | 47 | -60.5 | ||||
| 2009-11-01T00:00 | 20969 | 47 | -60.5 | ||||
| 2009-11-01T00:00 | 20973 | 47 | -60.5 | ||||
| 2009-11-01T00:00 | 20993 | 47 | -60.6 | ||||
| 2009-11-01T00:00 | 20998 | 47 | -60.5 | ||||
| 2009-11-01T00:00 | 21000 | 47 | -60.5 | ||||
| 2009-11-01T00:00 | 21021 | 47 | -60.6 | ||||
| 2009-11-01T00:00 | 21034 | 47 | -60.5 | ||||
| 2009-11-01T00:00 | 21041 | 47 | -60.6 | ||||
| 2009-11-01T00:00 | 21074 | 46 | -60.8 | ||||
| 2009-11-01T00:00 | 21089 | 46 | -60.8 | ||||
| 2009-11-01T00:00 | 21096 | 46 | -60.8 | ||||
| 2009-11-01T00:00 | 21116 | 46 | -60.9 | 307 | 6 | ||
| 2009-11-01T00:00 | 21122 | 46 | -61.0 | ||||
| 2009-11-01T00:00 | 21129 | 46 | -60.8 | ||||
| 2009-11-01T00:00 | 21131 | 46 | -60.9 | ||||
| 2009-11-01T00:00 | 21150 | 46 | -60.7 | ||||
| 2009-11-01T00:00 | 21161 | 46 | -60.5 | ||||
| 2009-11-01T00:00 | 21166 | 46 | -60.5 | ||||
| 2009-11-01T00:00 | 21194 | 46 | -60.5 | ||||
| 2009-11-01T00:00 | 21206 | 45 | -60.4 | ||||
| 2009-11-01T00:00 | 21211 | 45 | -60.3 | ||||
| 2009-11-01T00:00 | 21238 | 45 | -60.4 | ||||
| 2009-11-01T00:00 | 21248 | 45 | -60.2 | ||||
| 2009-11-01T00:00 | 21253 | 45 | -60.1 | ||||
| 2009-11-01T00:00 | 21274 | 45 | -60.1 | ||||
| 2009-11-01T00:00 | 21282 | 45 | -60.0 | ||||
| 2009-11-01T00:00 | 21289 | 45 | -60.0 | ||||
| 2009-11-01T00:00 | 21306 | 45 | -60.0 | ||||
| 2009-11-01T00:00 | 21321 | 45 | -59.9 | ||||
| 2009-11-01T00:00 | 21327 | 45 | -59.9 | ||||
| 2009-11-01T00:00 | 21352 | 44 | -59.9 | ||||
| 2009-11-01T00:00 | 21361 | 44 | -59.8 | ||||
| 2009-11-01T00:00 | 21366 | 44 | -59.8 | ||||
| 2009-11-01T00:00 | 21389 | 44 | -59.9 | ||||
| 2009-11-01T00:00 | 21393 | 44 | -59.8 | 314 | 6 | ||
| 2009-11-01T00:00 | 21397 | 44 | -59.7 | ||||
| 2009-11-01T00:00 | 21402 | 44 | -59.7 | ||||
| 2009-11-01T00:00 | 21425 | 44 | -59.6 | ||||
| 2009-11-01T00:00 | 21436 | 44 | -59.5 | ||||
| 2009-11-01T00:00 | 21441 | 44 | -59.5 | ||||
| 2009-11-01T00:00 | 21463 | 44 | -59.6 | ||||
| 2009-11-01T00:00 | 21468 | 44 | -59.5 | ||||
| 2009-11-01T00:00 | 21473 | 44 | -59.5 | ||||
| 2009-11-01T00:00 | 21486 | 43 | -59.6 | ||||
| 2009-11-01T00:00 | 21501 | 43 | -59.5 | ||||
| 2009-11-01T00:00 | 21506 | 43 | -59.6 | ||||
| 2009-11-01T00:00 | 21530 | 43 | -59.7 | ||||
| 2009-11-01T00:00 | 21539 | 43 | -59.5 | ||||
| 2009-11-01T00:00 | 21544 | 43 | -59.4 | ||||
| 2009-11-01T00:00 | 21573 | 43 | -59.4 | ||||
| 2009-11-01T00:00 | 21588 | 43 | -59.2 | ||||
| 2009-11-01T00:00 | 21595 | 43 | -59.2 | ||||
| 2009-11-01T00:00 | 21628 | 42 | -59.1 | ||||
| 2009-11-01T00:00 | 21639 | 42 | -59.0 | ||||
| 2009-11-01T00:00 | 21645 | 42 | -59.1 | ||||
| 2009-11-01T00:00 | 21669 | 42 | -59.3 | ||||
| 2009-11-01T00:00 | 21676 | 42 | -59.3 | ||||
| 2009-11-01T00:00 | 21680 | 42 | -59.3 | ||||
| 2009-11-01T00:00 | 21681 | 42 | -59.4 | 318 | 6 | ||
| 2009-11-01T00:00 | 21688 | 42 | -59.4 | ||||
| 2009-11-01T00:00 | 21718 | 42 | -59.3 | ||||
| 2009-11-01T00:00 | 21728 | 42 | -59.2 | ||||
| 2009-11-01T00:00 | 21770 | 42 | -59.2 | ||||
| 2009-11-01T00:00 | 21781 | 41 | -59.2 | ||||
| 2009-11-01T00:00 | 21786 | 41 | -59.2 | ||||
| 2009-11-01T00:00 | 21808 | 41 | -59.4 | ||||
| 2009-11-01T00:00 | 21815 | 41 | -59.3 | ||||
| 2009-11-01T00:00 | 21818 | 41 | -59.3 | ||||
| 2009-11-01T00:00 | 21843 | 41 | -59.3 | ||||
| 2009-11-01T00:00 | 21858 | 41 | -59.3 | ||||
| 2009-11-01T00:00 | 21865 | 41 | -59.2 | ||||
| 2009-11-01T00:00 | 21896 | 41 | -58.8 | ||||
| 2009-11-01T00:00 | 21904 | 41 | -58.7 | ||||
| 2009-11-01T00:00 | 21908 | 41 | -58.7 | ||||
| 2009-11-01T00:00 | 21931 | 40 | -58.8 | ||||
| 2009-11-01T00:00 | 21942 | 40 | -58.7 | ||||
| 2009-11-01T00:00 | 21947 | 40 | -58.7 | ||||
| 2009-11-01T00:00 | 21967 | 40 | -58.8 | 323 | 4 | ||
| 2009-11-01T00:00 | 21972 | 40 | -58.8 | ||||
| 2009-11-01T00:00 | 21981 | 40 | -58.7 | ||||
| 2009-11-01T00:00 | 21990 | 40 | -58.7 | ||||
| 2009-11-01T00:00 | 22008 | 40 | -58.6 | ||||
| 2009-11-01T00:00 | 22018 | 40 | -58.5 | ||||
| 2009-11-01T00:00 | 22022 | 40 | -58.5 | ||||
| 2009-11-01T00:00 | 22038 | 40 | -58.0 | ||||
| 2009-11-01T00:00 | 22057 | 40 | -57.8 | ||||
| 2009-11-01T00:00 | 22063 | 40 | -57.8 | ||||
| 2009-11-01T00:00 | 22095 | 39 | -57.9 | ||||
| 2009-11-01T00:00 | 22108 | 39 | -57.8 | ||||
| 2009-11-01T00:00 | 22115 | 39 | -57.8 | ||||
| 2009-11-01T00:00 | 22143 | 39 | -58.0 | ||||
| 2009-11-01T00:00 | 22151 | 39 | -58.0 | ||||
| 2009-11-01T00:00 | 22156 | 39 | -58.0 | ||||
| 2009-11-01T00:00 | 22176 | 39 | -58.0 | ||||
| 2009-11-01T00:00 | 22184 | 39 | -57.9 | ||||
| 2009-11-01T00:00 | 22188 | 39 | -58.0 | ||||
| 2009-11-01T00:00 | 22214 | 39 | -58.0 | ||||
| 2009-11-01T00:00 | 22227 | 39 | -58.0 | ||||
| 2009-11-01T00:00 | 22233 | 39 | -58.0 | ||||
| 2009-11-01T00:00 | 22258 | 38 | -58.2 | ||||
| 2009-11-01T00:00 | 22263 | 38 | -58.2 | 312 | 2 | ||
| 2009-11-01T00:00 | 22265 | 38 | -58.2 | ||||
| 2009-11-01T00:00 | 22281 | 38 | -58.4 | ||||
| 2009-11-01T00:00 | 22290 | 38 | -58.4 | ||||
| 2009-11-01T00:00 | 22294 | 38 | -58.5 | ||||
| 2009-11-01T00:00 | 22317 | 38 | -58.6 | ||||
| 2009-11-01T00:00 | 22327 | 38 | -58.5 | ||||
| 2009-11-01T00:00 | 22332 | 38 | -58.5 | ||||
| 2009-11-01T00:00 | 22360 | 38 | -58.5 | ||||
| 2009-11-01T00:00 | 22372 | 38 | -58.4 | ||||
| 2009-11-01T00:00 | 22379 | 38 | -58.4 | ||||
| 2009-11-01T00:00 | 22411 | 38 | -58.3 | ||||
| 2009-11-01T00:00 | 22424 | 37 | -58.3 | ||||
| 2009-11-01T00:00 | 22436 | 37 | -58.4 | ||||
| 2009-11-01T00:00 | 22459 | 37 | -58.7 | ||||
| 2009-11-01T00:00 | 22466 | 37 | -58.7 | ||||
| 2009-11-01T00:00 | 22473 | 37 | -58.7 | ||||
| 2009-11-01T00:00 | 22491 | 37 | -58.8 | ||||
| 2009-11-01T00:00 | 22512 | 37 | -58.7 | ||||
| 2009-11-01T00:00 | 22519 | 37 | -58.7 | ||||
| 2009-11-01T00:00 | 22548 | 37 | -58.9 | ||||
| 2009-11-01T00:00 | 22557 | 37 | -58.8 | ||||
| 2009-11-01T00:00 | 22561 | 37 | -58.8 | ||||
| 2009-11-01T00:00 | 22567 | 37 | -58.9 | 315 | 2 | ||
| 2009-11-01T00:00 | 22576 | 37 | -58.9 | ||||
| 2009-11-01T00:00 | 22580 | 37 | -58.8 | ||||
| 2009-11-01T00:00 | 22581 | 36 | -58.9 | ||||
| 2009-11-01T00:00 | 22610 | 36 | -59.0 | ||||
| 2009-11-01T00:00 | 22634 | 36 | -58.9 | ||||
| 2009-11-01T00:00 | 22646 | 36 | -59.0 | ||||
| 2009-11-01T00:00 | 22678 | 36 | -59.2 | ||||
| 2009-11-01T00:00 | 22685 | 36 | -59.5 | ||||
| 2009-11-01T00:00 | 22705 | 36 | -59.5 | ||||
| 2009-11-01T00:00 | 22714 | 36 | -59.5 | ||||
| 2009-11-01T00:00 | 22754 | 36 | -59.6 | ||||
| 2009-11-01T00:00 | 22764 | 35 | -59.5 | ||||
| 2009-11-01T00:00 | 22769 | 35 | -59.5 | ||||
| 2009-11-01T00:00 | 22794 | 35 | -59.8 | ||||
| 2009-11-01T00:00 | 22802 | 35 | -59.7 | ||||
| 2009-11-01T00:00 | 22806 | 35 | -59.7 | ||||
| 2009-11-01T00:00 | 22831 | 35 | -59.6 | ||||
| 2009-11-01T00:00 | 22842 | 35 | -59.5 | ||||
| 2009-11-01T00:00 | 22848 | 35 | -59.5 | ||||
| 2009-11-01T00:00 | 22870 | 35 | -59.7 | ||||
| 2009-11-01T00:00 | 22873 | 35 | -59.7 | 74 | 0 | ||
| 2009-11-01T00:00 | 22875 | 35 | -59.7 | ||||
| 2009-11-01T00:00 | 22878 | 35 | -59.5 | ||||
| 2009-11-01T00:00 | 22896 | 35 | -59.8 | ||||
| 2009-11-01T00:00 | 22907 | 35 | -59.8 | ||||
| 2009-11-01T00:00 | 22918 | 35 | -59.9 | ||||
| 2009-11-01T00:00 | 22940 | 34 | -60.1 | ||||
| 2009-11-01T00:00 | 22960 | 34 | -60.0 | ||||
| 2009-11-01T00:00 | 22967 | 34 | -60.0 | ||||
| 2009-11-01T00:00 | 22990 | 34 | -59.8 | ||||
| 2009-11-01T00:00 | 23002 | 34 | -59.6 | ||||
| 2009-11-01T00:00 | 23006 | 34 | -59.6 | ||||
| 2009-11-01T00:00 | 23024 | 34 | -59.7 | ||||
| 2009-11-01T00:00 | 23030 | 34 | -59.6 | ||||
| 2009-11-01T00:00 | 23033 | 34 | -59.6 | ||||
| 2009-11-01T00:00 | 23052 | 34 | -59.6 | ||||
| 2009-11-01T00:00 | 23062 | 34 | -59.5 | ||||
| 2009-11-01T00:00 | 23067 | 34 | -59.4 | ||||
| 2009-11-01T00:00 | 23098 | 34 | -59.5 | ||||
| 2009-11-01T00:00 | 23113 | 34 | -59.4 | ||||
| 2009-11-01T00:00 | 23121 | 33 | -59.4 | ||||
| 2009-11-01T00:00 | 23154 | 33 | -59.4 | ||||
| 2009-11-01T00:00 | 23165 | 33 | -59.2 | ||||
| 2009-11-01T00:00 | 23170 | 33 | -59.3 | ||||
| 2009-11-01T00:00 | 23174 | 33 | -59.3 | 184 | 2 | ||
| 2009-11-01T00:00 | 23191 | 33 | -59.3 | ||||
| 2009-11-01T00:00 | 23197 | 33 | -59.1 | ||||
| 2009-11-01T00:00 | 23200 | 33 | -59.1 | ||||
| 2009-11-01T00:00 | 23221 | 33 | -59.2 | ||||
| 2009-11-01T00:00 | 23234 | 33 | -59.0 | ||||
| 2009-11-01T00:00 | 23240 | 33 | -59.0 | ||||
| 2009-11-01T00:00 | 23259 | 33 | -59.1 | ||||
| 2009-11-01T00:00 | 23275 | 33 | -59.0 | ||||
| 2009-11-01T00:00 | 23295 | 33 | -58.9 | ||||
| 2009-11-01T00:00 | 23305 | 33 | -58.9 | ||||
| 2009-11-01T00:00 | 23340 | 32 | -58.8 | ||||
| 2009-11-01T00:00 | 23345 | 32 | -58.5 | ||||
| 2009-11-01T00:00 | 23348 | 32 | -58.5 | ||||
| 2009-11-01T00:00 | 23370 | 32 | -58.6 | ||||
| 2009-11-01T00:00 | 23384 | 32 | -58.3 | ||||
| 2009-11-01T00:00 | 23391 | 32 | -58.3 | ||||
| 2009-11-01T00:00 | 23417 | 32 | -58.4 | ||||
| 2009-11-01T00:00 | 23422 | 32 | -58.3 | ||||
| 2009-11-01T00:00 | 23424 | 32 | -58.3 | ||||
| 2009-11-01T00:00 | 23444 | 32 | -58.2 | 233 | 3 | ||
| 2009-11-01T00:00 | 23458 | 32 | -58.0 | ||||
| 2009-11-01T00:00 | 23465 | 32 | -58.0 | ||||
| 2009-11-01T00:00 | 23498 | 32 | -58.0 | ||||
| 2009-11-01T00:00 | 23509 | 31 | -58.1 | ||||
| 2009-11-01T00:00 | 23515 | 31 | -58.2 | ||||
| 2009-11-01T00:00 | 23528 | 31 | -57.7 | ||||
| 2009-11-01T00:00 | 23532 | 31 | -57.6 | ||||
| 2009-11-01T00:00 | 23550 | 31 | -57.5 | ||||
| 2009-11-01T00:00 | 23559 | 31 | -57.5 | ||||
| 2009-11-01T00:00 | 23591 | 31 | -57.6 | ||||
| 2009-11-01T00:00 | 23595 | 31 | -57.4 | ||||
| 2009-11-01T00:00 | 23597 | 31 | -57.4 | ||||
| 2009-11-01T00:00 | 23615 | 31 | -57.4 | ||||
| 2009-11-01T00:00 | 23626 | 31 | -57.3 | ||||
| 2009-11-01T00:00 | 23632 | 31 | -57.4 | ||||
| 2009-11-01T00:00 | 23667 | 31 | -57.2 | ||||
| 2009-11-01T00:00 | 23684 | 31 | -57.0 | ||||
| 2009-11-01T00:00 | 23693 | 31 | -57.0 | ||||
| 2009-11-01T00:00 | 23730 | 30 | -57.1 | ||||
| 2009-11-01T00:00 | 23742 | 30 | -57.1 | ||||
| 2009-11-01T00:00 | 23748 | 30 | -57.1 | ||||
| 2009-11-01T00:00 | 23754 | 30 | -57.1 | 274 | 3 | ||
| 2009-11-01T00:00 | 23776 | 30 | -57.2 | ||||
| 2009-11-01T00:00 | 23786 | 30 | -57.2 | ||||
| 2009-11-01T00:00 | 23791 | 30 | -57.1 | ||||
| 2009-11-01T00:00 | 23812 | 30 | -57.2 | ||||
| 2009-11-01T00:00 | 23814 | 30 | -57.2 | ||||
| 2009-11-01T00:00 | 23822 | 30 | -57.0 | ||||
| 2009-11-01T00:00 | 23826 | 30 | -57.0 | ||||
| 2009-11-01T00:00 | 23840 | 30 | -57.0 | ||||
| 2009-11-01T00:00 | 23842 | 30 | -56.9 | ||||
| 2009-11-01T00:00 | 23843 | 30 | -57.0 | ||||
| 2009-11-01T00:00 | 23872 | 30 | -57.2 | ||||
| 2009-11-01T00:00 | 23897 | 30 | -57.2 | ||||
| 2009-11-01T00:00 | 23910 | 30 | -57.2 | ||||
| 2009-11-01T00:00 | 23953 | 29 | -57.3 | ||||
| 2009-11-01T00:00 | 23958 | 29 | -57.2 | ||||
| 2009-11-01T00:00 | 23961 | 29 | -57.2 | ||||
| 2009-11-01T00:00 | 23979 | 29 | -57.2 | ||||
| 2009-11-01T00:00 | 23990 | 29 | -57.1 | ||||
| 2009-11-01T00:00 | 23995 | 29 | -57.1 | ||||
| 2009-11-01T00:00 | 24021 | 29 | -57.1 | ||||
| 2009-11-01T00:00 | 24031 | 29 | -57.1 | ||||
| 2009-11-01T00:00 | 24036 | 29 | -56.9 | ||||
| 2009-11-01T00:00 | 24065 | 29 | -56.7 | 281 | 3 | ||
| 2009-11-01T00:00 | 24079 | 29 | -56.6 | ||||
| 2009-11-01T00:00 | 24086 | 29 | -56.6 | ||||
| 2009-11-01T00:00 | 24113 | 29 | -56.8 | ||||
| 2009-11-01T00:00 | 24128 | 29 | -56.7 | ||||
| 2009-11-01T00:00 | 24133 | 29 | -56.6 | ||||
| 2009-11-01T00:00 | 24152 | 28 | -56.6 | ||||
| 2009-11-01T00:00 | 24161 | 28 | -56.5 | ||||
| 2009-11-01T00:00 | 24170 | 28 | -56.5 | ||||
| 2009-11-01T00:00 | 24184 | 28 | -56.5 | ||||
| 2009-11-01T00:00 | 24189 | 28 | -56.4 | ||||
| 2009-11-01T00:00 | 24192 | 28 | -56.5 | ||||
| 2009-11-01T00:00 | 24214 | 28 | -56.6 | ||||
| 2009-11-01T00:00 | 24229 | 28 | -56.4 | ||||
| 2009-11-01T00:00 | 24236 | 28 | -56.4 | ||||
| 2009-11-01T00:00 | 24254 | 28 | -56.5 | ||||
| 2009-11-01T00:00 | 24255 | 28 | -56.3 | ||||
| 2009-11-01T00:00 | 24280 | 28 | -56.6 | ||||
| 2009-11-01T00:00 | 24298 | 28 | -56.5 | ||||
| 2009-11-01T00:00 | 24307 | 28 | -56.6 | ||||
| 2009-11-01T00:00 | 24326 | 28 | -56.7 | 278 | 4 | ||
| 2009-11-01T00:00 | 24355 | 28 | -56.7 | ||||
| 2009-11-01T00:00 | 24376 | 27 | -56.6 | ||||
| 2009-11-01T00:00 | 24387 | 27 | -56.5 | ||||
| 2009-11-01T00:00 | 24429 | 27 | -56.6 | ||||
| 2009-11-01T00:00 | 24439 | 27 | -56.6 | ||||
| 2009-11-01T00:00 | 24444 | 27 | -56.4 | ||||
| 2009-11-01T00:00 | 24460 | 27 | -56.3 | ||||
| 2009-11-01T00:00 | 24462 | 27 | -56.2 | ||||
| 2009-11-01T00:00 | 24463 | 27 | -56.3 | ||||
| 2009-11-01T00:00 | 24488 | 27 | -56.2 | ||||
| 2009-11-01T00:00 | 24510 | 27 | -56.1 | ||||
| 2009-11-01T00:00 | 24522 | 27 | -56.1 | ||||
| 2009-11-01T00:00 | 24560 | 27 | -56.4 | ||||
| 2009-11-01T00:00 | 24571 | 27 | -56.4 | ||||
| 2009-11-01T00:00 | 24581 | 27 | -56.4 | ||||
| 2009-11-01T00:00 | 24601 | 26 | -56.6 | ||||
| 2009-11-01T00:00 | 24610 | 26 | -56.6 | ||||
| 2009-11-01T00:00 | 24615 | 26 | -56.6 | ||||
| 2009-11-01T00:00 | 24640 | 26 | -56.4 | ||||
| 2009-11-01T00:00 | 24651 | 26 | -56.2 | ||||
| 2009-11-01T00:00 | 24657 | 26 | -56.2 | ||||
| 2009-11-01T00:00 | 24666 | 26 | -55.8 | ||||
| 2009-11-01T00:00 | 24669 | 26 | -55.8 | 272 | 5 | ||
| 2009-11-01T00:00 | 24682 | 26 | -55.7 | ||||
| 2009-11-01T00:00 | 24691 | 26 | -55.8 | ||||
| 2009-11-01T00:00 | 24739 | 26 | -55.9 | ||||
| 2009-11-01T00:00 | 24759 | 26 | -55.7 | ||||
| 2009-11-01T00:00 | 24769 | 26 | -55.6 | ||||
| 2009-11-01T00:00 | 24806 | 26 | -55.6 | ||||
| 2009-11-01T00:00 | 24814 | 26 | -55.6 | ||||
| 2009-11-01T00:00 | 24818 | 26 | -55.6 | ||||
| 2009-11-01T00:00 | 24838 | 26 | -55.7 | ||||
| 2009-11-01T00:00 | 24861 | 25 | -55.4 | ||||
| 2009-11-01T00:00 | 24868 | 25 | -55.4 | ||||
| 2009-11-01T00:00 | 24895 | 25 | -55.7 | ||||
| 2009-11-01T00:00 | 24902 | 25 | -55.6 | ||||
| 2009-11-01T00:00 | 24906 | 25 | -55.6 | ||||
| 2009-11-01T00:00 | 24921 | 25 | -55.9 | ||||
| 2009-11-01T00:00 | 24938 | 25 | -55.8 | ||||
| 2009-11-01T00:00 | 24988 | 25 | -56.0 | 264 | 7 | ||
| 2009-11-01T00:00 | 25001 | 25 | -56.1 | ||||
| 2009-11-01T00:00 | 25012 | 25 | -56.0 | ||||
| 2009-11-01T00:00 | 25018 | 25 | -56.0 | ||||
| 2009-11-01T00:00 | 25046 | 25 | -56.1 | ||||
| 2009-11-01T00:00 | 25057 | 25 | -56.0 | ||||
| 2009-11-01T00:00 | 25063 | 25 | -56.0 | ||||
| 2009-11-01T00:00 | 25085 | 25 | -56.2 | ||||
| 2009-11-01T00:00 | 25091 | 25 | -56.1 | ||||
| 2009-11-01T00:00 | 25094 | 25 | -56.2 | ||||
| 2009-11-01T00:00 | 25111 | 24 | -56.3 | ||||
| 2009-11-01T00:00 | 25129 | 24 | -56.2 | ||||
| 2009-11-01T00:00 | 25147 | 24 | -56.2 | ||||
| 2009-11-01T00:00 | 25172 | 24 | -56.1 | ||||
| 2009-11-01T00:00 | 25182 | 24 | -56.2 | ||||
| 2009-11-01T00:00 | 25195 | 24 | -56.0 | ||||
| 2009-11-01T00:00 | 25202 | 24 | -56.1 | ||||
| 2009-11-01T00:00 | 25228 | 24 | -56.3 | ||||
| 2009-11-01T00:00 | 25232 | 24 | -56.2 | ||||
| 2009-11-01T00:00 | 25235 | 24 | -56.3 | ||||
| 2009-11-01T00:00 | 25266 | 24 | -56.5 | ||||
| 2009-11-01T00:00 | 25290 | 24 | -56.4 | ||||
| 2009-11-01T00:00 | 25302 | 24 | -56.4 | ||||
| 2009-11-01T00:00 | 25308 | 24 | -56.4 | 264 | 8 | ||
| 2009-11-01T00:00 | 25335 | 24 | -56.5 | ||||
| 2009-11-01T00:00 | 25338 | 24 | -56.2 | ||||
| 2009-11-01T00:00 | 25372 | 23 | -55.8 | ||||
| 2009-11-01T00:00 | 25383 | 23 | -55.8 |
Only the first 2000 rows were shown. To view the complete dataset, download it as tab-delimited text. You can still view the full matrix in your browser, but be aware that this may crash the browser due to the huge size.
